KLM702 SAEZ-EHAM

Flight info

Callsign KLM702
Flight time N/A
Altitude 31000
Route DORVO1A DORVO UN857 OGRUN DCT NIGBI UZ121 PENSO UZ5 SEKPO DCT KADAG/N0503F330 UZ2 SLI DCT MAVKO DCT GOGSO/N0495F350 DCT GARPO/M084F350 DCT TEGTO DCT SORAD DCT 35N022W/M084F370 40N019W DCT GONAN DCT TAMEL DCT EVBAK DCT GAPLI/N0482F370 DCT GAJIT DCT ENHAQ DCT REDFA
Aircraft B77W/H-SDE1E2E3FGHIJ2J3J4J5M1RWXY/LB1D1

Departure

Time 2026-05-07 01:09
Airport Ezeiza International Airport - Ministro Pistarini (SAEZ)

Arrival

Time N/A
Airport Amsterdam Airport Schiphol (EHAM)
Time Latitude Longitude Altitude Speed Heading
2026-05-07 00:20 -34.81559 -58.53923 85 ft 0 kts 322°
2026-05-07 00:59 -34.81574 -58.53907 80 ft 4 kts 307°
2026-05-07 00:59 -34.81585 -58.53880 80 ft 4 kts 276°
2026-05-07 01:00 -34.81582 -58.53850 81 ft 4 kts 239°
2026-05-07 01:00 -34.81575 -58.53837 80 ft 0 kts 226°
2026-05-07 01:03 -34.81575 -58.53838 85 ft 1 kts 225°
2026-05-07 01:03 -34.81595 -58.53840 83 ft 6 kts 168°
2026-05-07 01:03 -34.81642 -58.53822 80 ft 5 kts 175°
2026-05-07 01:03 -34.81651 -58.53823 81 ft 0 kts 185°
2026-05-07 01:04 -34.81662 -58.53826 83 ft 6 kts 195°
2026-05-07 01:04 -34.81717 -58.53890 80 ft 14 kts 238°
2026-05-07 01:05 -34.81776 -58.54008 81 ft 18 kts 244°
2026-05-07 01:05 -34.81786 -58.54173 83 ft 22 kts 280°
2026-05-07 01:05 -34.81768 -58.54331 82 ft 17 kts 277°
2026-05-07 01:05 -34.81753 -58.54479 83 ft 17 kts 272°
2026-05-07 01:06 -34.81772 -58.54641 80 ft 21 kts 260°
2026-05-07 01:06 -34.81767 -58.54829 81 ft 24 kts 283°
2026-05-07 01:06 -34.81737 -58.54987 80 ft 20 kts 282°
2026-05-07 01:06 -34.81707 -58.55156 84 ft 18 kts 283°
2026-05-07 01:07 -34.81713 -58.55300 85 ft 16 kts 236°
2026-05-07 01:07 -34.81736 -58.55324 85 ft 2 kts 210°
2026-05-07 01:07 -34.81790 -58.55336 83 ft 12 kts 173°
2026-05-07 01:07 -34.81902 -58.55254 86 ft 24 kts 134°
2026-05-07 01:08 -34.81935 -58.55171 83 ft 0 kts 103°
2026-05-07 01:08 -34.81935 -58.55170 83 ft 3 kts 103°
2026-05-07 01:08 -34.81990 -58.54871 87 ft 78 kts 102°
2026-05-07 01:08 -34.82166 -58.53880 89 ft 160 kts 102°
2026-05-07 01:09 -34.82452 -58.52279 246 ft 216 kts 102°
2026-05-07 01:09 -34.82856 -58.50439 1087 ft 235 kts 109°
2026-05-07 01:09 -34.83739 -58.48758 2241 ft 241 kts 130°
2026-05-07 01:09 -34.84539 -58.47740 2548 ft 251 kts 131°
2026-05-07 01:10 -34.86208 -58.45549 2656 ft 282 kts 128°
2026-05-07 01:10 -34.87308 -58.43488 2922 ft 296 kts 115°
2026-05-07 01:10 -34.87889 -58.41188 3616 ft 278 kts 82°
2026-05-07 01:10 -34.87718 -58.39643 3931 ft 270 kts 66°
2026-05-07 01:11 -34.87219 -58.37411 4363 ft 279 kts 69°
2026-05-07 01:11 -34.86782 -58.35082 5035 ft 283 kts 70°
2026-05-07 01:11 -34.86363 -58.32726 5666 ft 288 kts 71°
2026-05-07 01:11 -34.85941 -58.30359 6238 ft 292 kts 70°
2026-05-07 01:12 -34.85501 -58.27922 6872 ft 296 kts 70°
2026-05-07 01:12 -34.85059 -58.25458 7478 ft 299 kts 70°
2026-05-07 01:12 -34.84613 -58.22977 8094 ft 301 kts 70°
2026-05-07 01:12 -34.84168 -58.20465 8637 ft 306 kts 70°
2026-05-07 01:13 -34.83709 -58.17928 9247 ft 307 kts 70°
2026-05-07 01:13 -34.83249 -58.15380 9849 ft 311 kts 71°
2026-05-07 01:13 -34.82771 -58.12758 10092 ft 327 kts 71°
2026-05-07 01:13 -34.82264 -58.09980 10239 ft 345 kts 72°
2026-05-07 01:14 -34.81726 -58.07056 10393 ft 364 kts 72°
2026-05-07 01:14 -34.81168 -58.03975 10542 ft 382 kts 73°
2026-05-07 01:14 -34.80586 -58.00753 10795 ft 397 kts 73°
2026-05-07 01:14 -34.79984 -57.97420 11216 ft 407 kts 73°
2026-05-07 01:15 -34.79371 -57.94033 11758 ft 413 kts 73°
2026-05-07 01:15 -34.78752 -57.90609 12376 ft 416 kts 74°
2026-05-07 01:15 -34.78128 -57.87160 12982 ft 419 kts 74°
2026-05-07 01:15 -34.77495 -57.83678 13592 ft 423 kts 73°
2026-05-07 01:16 -34.76854 -57.80183 14194 ft 425 kts 73°
2026-05-07 01:16 -34.76208 -57.76664 14789 ft 428 kts 73°
2026-05-07 01:16 -34.75557 -57.73124 15344 ft 431 kts 73°
2026-05-07 01:16 -34.74898 -57.69548 15910 ft 434 kts 73°
2026-05-07 01:17 -34.74236 -57.65957 16501 ft 437 kts 73°
2026-05-07 01:17 -34.73570 -57.62337 17080 ft 440 kts 73°
2026-05-07 01:17 -34.72897 -57.58696 17639 ft 443 kts 73°
2026-05-07 01:17 -34.72148 -57.55062 18145 ft 443 kts 67°
2026-05-07 01:18 -34.70968 -57.51624 18604 ft 441 kts 57°
2026-05-07 01:18 -34.69418 -57.48475 19096 ft 439 kts 50°
2026-05-07 01:18 -34.67523 -57.45588 19576 ft 438 kts 44°
2026-05-07 01:18 -34.65533 -57.42758 20037 ft 442 kts 44°
2026-05-07 01:19 -34.63527 -57.39904 20501 ft 446 kts 44°
2026-05-07 01:19 -34.61508 -57.37019 20966 ft 450 kts 44°
2026-05-07 01:19 -34.59482 -57.34106 21421 ft 453 kts 44°
2026-05-07 01:19 -34.57446 -57.31171 21872 ft 457 kts 44°
2026-05-07 01:20 -34.55398 -57.28207 22277 ft 460 kts 44°
2026-05-07 01:20 -34.53332 -57.25219 22684 ft 464 kts 44°
2026-05-07 01:20 -34.51251 -57.22211 23095 ft 467 kts 44°
2026-05-07 01:20 -34.49155 -57.19182 23491 ft 470 kts 44°
2026-05-07 01:21 -34.47047 -57.16141 23888 ft 473 kts 44°
2026-05-07 01:21 -34.44922 -57.13077 24260 ft 476 kts 44°
2026-05-07 01:21 -34.42784 -57.09996 24639 ft 479 kts 44°
2026-05-07 01:21 -34.40632 -57.06896 25026 ft 482 kts 44°
2026-05-07 01:22 -34.38467 -57.03781 25409 ft 484 kts 44°
2026-05-07 01:22 -34.36291 -57.00655 25783 ft 487 kts 44°
2026-05-07 01:22 -34.34104 -56.97516 26151 ft 489 kts 44°
2026-05-07 01:22 -34.31906 -56.94363 26515 ft 491 kts 44°
2026-05-07 01:23 -34.29697 -56.91196 26836 ft 494 kts 44°
2026-05-07 01:23 -34.27472 -56.88011 27150 ft 497 kts 44°
2026-05-07 01:23 -34.25237 -56.84814 27489 ft 498 kts 44°
2026-05-07 01:23 -34.22995 -56.81616 27813 ft 500 kts 44°
2026-05-07 01:24 -34.20738 -56.78404 28106 ft 502 kts 44°
2026-05-07 01:24 -34.18471 -56.75179 28378 ft 505 kts 44°
2026-05-07 01:24 -34.16191 -56.71941 28646 ft 507 kts 44°
2026-05-07 01:24 -34.13905 -56.68693 28897 ft 509 kts 44°
2026-05-07 01:25 -34.11609 -56.65430 29157 ft 510 kts 44°
2026-05-07 01:25 -34.09311 -56.62168 29410 ft 511 kts 44°
2026-05-07 01:25 -34.07004 -56.58895 29679 ft 511 kts 44°
2026-05-07 01:25 -34.04700 -56.55627 29995 ft 511 kts 44°
2026-05-07 01:26 -34.02432 -56.52417 30308 ft 509 kts 44°
2026-05-07 01:26 -34.00134 -56.49167 30548 ft 510 kts 44°
2026-05-07 01:26 -33.97822 -56.45904 30672 ft 514 kts 44°
2026-05-07 01:27 -33.93148 -56.39309 30764 ft 518 kts 44°
2026-05-07 01:27 -33.88483 -56.32739 30761 ft 515 kts 44°
2026-05-07 01:28 -33.83807 -56.26248 30768 ft 512 kts 43°
2026-05-07 01:28 -33.79124 -56.19787 30761 ft 512 kts 43°
2026-05-07 01:29 -33.74474 -56.13300 30753 ft 513 kts 44°
2026-05-07 01:29 -33.69825 -56.06784 30755 ft 514 kts 44°
2026-05-07 01:30 -33.65162 -56.00262 30753 ft 515 kts 44°
2026-05-07 01:30 -33.60485 -55.93744 30777 ft 515 kts 44°
2026-05-07 01:31 -33.55804 -55.87234 30798 ft 516 kts 44°
2026-05-07 01:31 -33.51109 -55.80717 30751 ft 518 kts 44°
2026-05-07 01:32 -33.46394 -55.74182 30755 ft 518 kts 44°
2026-05-07 01:32 -33.41669 -55.67647 30749 ft 519 kts 44°
2026-05-07 01:33 -33.36938 -55.61114 30754 ft 520 kts 44°
2026-05-07 01:33 -33.32200 -55.54583 30758 ft 520 kts 44°
2026-05-07 01:34 -33.27454 -55.48050 30758 ft 521 kts 44°
2026-05-07 01:34 -33.22695 -55.41521 30779 ft 522 kts 44°
2026-05-07 01:35 -33.17955 -55.35022 30785 ft 523 kts 44°
2026-05-07 01:35 -33.13167 -55.28470 30806 ft 525 kts 44°
2026-05-07 01:36 -33.08356 -55.21898 30810 ft 526 kts 44°
2026-05-07 01:36 -33.03535 -55.15325 30816 ft 527 kts 44°
2026-05-07 01:37 -32.98699 -55.08742 30811 ft 528 kts 44°
2026-05-07 01:37 -32.93862 -55.02173 30850 ft 527 kts 44°
2026-05-07 01:38 -32.89021 -54.95610 30848 ft 528 kts 43°
2026-05-07 01:38 -32.84170 -54.89045 30856 ft 529 kts 44°
2026-05-07 01:39 -32.79311 -54.82472 30849 ft 529 kts 43°
2026-05-07 01:39 -32.74438 -54.75901 30849 ft 530 kts 43°
2026-05-07 01:40 -32.69559 -54.69335 30852 ft 531 kts 43°
2026-05-07 01:40 -32.64667 -54.62760 30852 ft 532 kts 43°
2026-05-07 01:41 -32.59761 -54.56177 30855 ft 533 kts 43°
2026-05-07 01:41 -32.54849 -54.49599 30855 ft 533 kts 43°
2026-05-07 01:42 -32.49924 -54.43014 30858 ft 534 kts 43°
2026-05-07 01:42 -32.44983 -54.36421 30860 ft 536 kts 43°
2026-05-07 01:43 -32.40032 -54.29824 30860 ft 536 kts 43°
2026-05-07 01:43 -32.35062 -54.23218 30864 ft 538 kts 43°
2026-05-07 01:44 -32.30107 -54.16567 30858 ft 540 kts 44°
2026-05-07 01:44 -32.25200 -54.09908 30863 ft 541 kts 44°
2026-05-07 01:45 -32.20253 -54.03209 30854 ft 541 kts 44°
2026-05-07 01:45 -32.15293 -53.96525 30863 ft 541 kts 44°
2026-05-07 01:46 -32.10329 -53.89850 30858 ft 541 kts 44°
2026-05-07 01:46 -32.05047 -53.83609 30856 ft 534 kts 34°
2026-05-07 01:47 -31.99052 -53.78584 30874 ft 526 kts 26°
2026-05-07 01:47 -31.92907 -53.73895 30870 ft 527 kts 27°
2026-05-07 01:48 -31.86776 -53.69167 30880 ft 527 kts 27°
2026-05-07 01:48 -31.80652 -53.64408 30880 ft 528 kts 27°
2026-05-07 01:49 -31.74524 -53.59646 30878 ft 528 kts 27°
2026-05-07 01:49 -31.68393 -53.54889 30901 ft 529 kts 27°
2026-05-07 01:50 -31.62247 -53.50133 30902 ft 529 kts 27°
2026-05-07 01:50 -31.56092 -53.45375 30903 ft 531 kts 27°
2026-05-07 01:51 -31.49924 -53.40616 30911 ft 531 kts 27°
2026-05-07 01:51 -31.43748 -53.35862 30907 ft 532 kts 27°
2026-05-07 01:52 -31.37566 -53.31106 30909 ft 531 kts 27°
2026-05-07 01:52 -31.31390 -53.26364 30915 ft 531 kts 27°
2026-05-07 01:53 -31.25215 -53.21634 30916 ft 530 kts 27°
2026-05-07 01:53 -31.19046 -53.16912 30918 ft 530 kts 27°
2026-05-07 01:54 -31.12879 -53.12200 30918 ft 530 kts 28°
2026-05-07 01:54 -31.06703 -53.07489 30917 ft 530 kts 28°
2026-05-07 01:55 -31.00520 -53.02782 30926 ft 531 kts 28°
2026-05-07 01:55 -30.94370 -52.98105 30930 ft 532 kts 28°
2026-05-07 01:56 -30.88166 -52.93396 30931 ft 532 kts 28°
2026-05-07 01:56 -30.81955 -52.88690 30922 ft 533 kts 28°
2026-05-07 01:57 -30.75737 -52.83978 30931 ft 534 kts 28°
2026-05-07 01:57 -30.69505 -52.79267 30920 ft 534 kts 28°
2026-05-07 01:58 -30.63267 -52.74562 30935 ft 535 kts 28°
2026-05-07 01:58 -30.57029 -52.69862 30922 ft 535 kts 28°
2026-05-07 01:59 -30.50785 -52.65165 30924 ft 535 kts 28°
2026-05-07 01:59 -30.44534 -52.60471 30926 ft 535 kts 28°
2026-05-07 02:00 -30.39338 -52.56575 30931 ft 535 kts 28°
2026-05-07 02:00 -30.33081 -52.51891 30934 ft 536 kts 28°
2026-05-07 02:01 -30.26818 -52.47206 30939 ft 536 kts 28°
2026-05-07 02:01 -30.20548 -52.42524 30937 ft 536 kts 28°
2026-05-07 02:02 -30.14278 -52.37850 30936 ft 537 kts 28°
2026-05-07 02:02 -30.07999 -52.33177 30935 ft 537 kts 28°
2026-05-07 02:03 -30.01718 -52.28511 30947 ft 537 kts 28°
2026-05-07 02:03 -29.95426 -52.23841 30954 ft 538 kts 28°
2026-05-07 02:04 -29.89130 -52.19176 30951 ft 538 kts 28°
2026-05-07 02:04 -29.82830 -52.14516 30958 ft 538 kts 28°
2026-05-07 02:05 -29.76521 -52.09854 30950 ft 539 kts 28°
2026-05-07 02:05 -29.70211 -52.05202 30953 ft 538 kts 28°
2026-05-07 02:06 -29.63906 -52.00560 30968 ft 538 kts 28°
2026-05-07 02:06 -29.57609 -51.95931 30971 ft 537 kts 28°
2026-05-07 02:07 -29.51312 -51.91307 30972 ft 537 kts 28°
2026-05-07 02:07 -29.41859 -51.84377 30971 ft 537 kts 28°
2026-05-07 02:08 -29.35557 -51.79769 30979 ft 537 kts 28°
2026-05-07 02:08 -29.29260 -51.75167 30976 ft 536 kts 28°
2026-05-07 02:09 -29.22999 -51.70515 30981 ft 537 kts 30°
2026-05-07 02:09 -29.16777 -51.65770 30987 ft 538 kts 30°
2026-05-07 02:10 -29.10540 -51.61041 30986 ft 538 kts 30°
2026-05-07 02:10 -29.04328 -51.56361 30986 ft 539 kts 30°
2026-05-07 02:11 -28.98016 -51.51624 30984 ft 539 kts 30°
2026-05-07 02:11 -28.91791 -51.46953 30982 ft 539 kts 30°
2026-05-07 02:12 -28.85528 -51.42257 30995 ft 539 kts 30°
2026-05-07 02:12 -28.79262 -51.37570 30986 ft 538 kts 30°
2026-05-07 02:13 -28.73011 -51.32895 31002 ft 537 kts 30°
2026-05-07 02:13 -28.66761 -51.28231 31001 ft 537 kts 30°
2026-05-07 02:14 -28.60502 -51.23568 30966 ft 538 kts 30°
2026-05-07 02:14 -28.54232 -51.18907 30967 ft 538 kts 30°
2026-05-07 02:15 -28.47962 -51.14245 30975 ft 538 kts 30°
2026-05-07 02:15 -28.41692 -51.09589 30983 ft 538 kts 30°
2026-05-07 02:16 -28.35420 -51.04941 30979 ft 538 kts 30°
2026-05-07 02:16 -28.29147 -51.00302 30986 ft 538 kts 30°
2026-05-07 02:17 -28.22874 -50.95668 30989 ft 538 kts 30°
2026-05-07 02:17 -28.16598 -50.91037 30992 ft 538 kts 30°
2026-05-07 02:18 -28.10367 -50.86444 30995 ft 539 kts 30°
2026-05-07 02:18 -28.03784 -50.82362 30995 ft 533 kts 19°
2026-05-07 02:19 -27.96875 -50.79642 31013 ft 527 kts 11°
2026-05-07 02:19 -27.89786 -50.77505 31012 ft 528 kts 11°
2026-05-07 02:20 -27.82693 -50.75331 31012 ft 529 kts 11°
2026-05-07 02:20 -27.75588 -50.73116 31013 ft 530 kts 11°
2026-05-07 02:21 -27.68479 -50.70885 31017 ft 530 kts 11°
2026-05-07 02:21 -27.61365 -50.68658 31028 ft 530 kts 11°
2026-05-07 02:22 -27.54255 -50.66442 31040 ft 530 kts 11°
2026-05-07 02:22 -27.47147 -50.64227 31042 ft 530 kts 11°
2026-05-07 02:23 -27.40035 -50.62013 31047 ft 530 kts 11°
2026-05-07 02:23 -27.32919 -50.59806 31068 ft 530 kts 11°
2026-05-07 02:24 -27.25848 -50.57611 31050 ft 531 kts 11°
2026-05-07 02:24 -27.18731 -50.55405 31055 ft 531 kts 11°
2026-05-07 02:25 -27.11604 -50.53192 31067 ft 532 kts 11°
2026-05-07 02:25 -27.04471 -50.50981 31070 ft 532 kts 11°
2026-05-07 02:26 -26.97330 -50.48783 31065 ft 532 kts 11°
2026-05-07 02:26 -26.90194 -50.46589 31067 ft 532 kts 11°
2026-05-07 02:27 -26.83060 -50.44397 31062 ft 532 kts 11°
2026-05-07 02:27 -26.75920 -50.42207 31082 ft 533 kts 11°
2026-05-07 02:28 -26.68764 -50.40017 31083 ft 533 kts 12°
2026-05-07 02:28 -26.61608 -50.37824 31075 ft 534 kts 12°
2026-05-07 02:29 -26.54446 -50.35632 31092 ft 534 kts 12°
2026-05-07 02:29 -26.47290 -50.33441 31135 ft 534 kts 12°
2026-05-07 02:30 -26.40122 -50.31246 31145 ft 534 kts 12°
2026-05-07 02:30 -26.32995 -50.29065 31149 ft 535 kts 12°
2026-05-07 02:31 -26.25812 -50.26871 31166 ft 535 kts 12°
2026-05-07 02:31 -26.18621 -50.24676 31162 ft 536 kts 12°
2026-05-07 02:32 -26.11430 -50.22483 31166 ft 536 kts 12°
2026-05-07 02:32 -26.04233 -50.20294 31167 ft 536 kts 12°
2026-05-07 02:33 -25.97038 -50.18106 31166 ft 536 kts 12°
2026-05-07 02:33 -25.89848 -50.15922 31177 ft 535 kts 12°
2026-05-07 02:34 -25.82659 -50.13743 31179 ft 535 kts 12°
2026-05-07 02:34 -25.75469 -50.11566 31186 ft 535 kts 12°
2026-05-07 02:35 -25.68282 -50.09395 31187 ft 535 kts 12°
2026-05-07 02:35 -25.61090 -50.07227 31194 ft 535 kts 12°
2026-05-07 02:36 -25.53898 -50.05063 31193 ft 536 kts 12°
2026-05-07 02:36 -25.46691 -50.02938 31212 ft 536 kts 12°
2026-05-07 02:37 -25.39488 -50.00825 31220 ft 536 kts 12°
2026-05-07 02:37 -25.32272 -49.98700 31213 ft 537 kts 12°
2026-05-07 02:38 -25.25053 -49.96567 31228 ft 538 kts 12°
2026-05-07 02:38 -25.17830 -49.94409 31219 ft 539 kts 12°
2026-05-07 02:39 -25.10587 -49.92278 31218 ft 539 kts 12°
2026-05-07 02:39 -25.03333 -49.90156 31223 ft 540 kts 12°
2026-05-07 02:40 -24.96122 -49.88041 31217 ft 540 kts 12°
2026-05-07 02:40 -24.88860 -49.85912 31214 ft 540 kts 12°
2026-05-07 02:41 -24.81597 -49.83785 31213 ft 540 kts 12°
2026-05-07 02:41 -24.74340 -49.81615 31212 ft 541 kts 13°
2026-05-07 02:42 -24.67100 -49.79355 31204 ft 541 kts 13°
2026-05-07 02:42 -24.59862 -49.77107 31205 ft 540 kts 13°
2026-05-07 02:43 -24.52623 -49.74875 31199 ft 540 kts 13°
2026-05-07 02:43 -24.45379 -49.72649 31199 ft 540 kts 13°
2026-05-07 02:44 -24.38097 -49.70619 31193 ft 540 kts 10°
2026-05-07 02:44 -24.30769 -49.68813 31188 ft 540 kts 10°
2026-05-07 02:45 -24.23445 -49.66968 31185 ft 540 kts 10°
2026-05-07 02:45 -24.16131 -49.65077 31180 ft 540 kts 11°
2026-05-07 02:46 -24.08807 -49.63184 31176 ft 541 kts 11°
2026-05-07 02:46 -24.01497 -49.61215 31167 ft 542 kts 12°
2026-05-07 02:47 -23.94250 -49.59155 31167 ft 542 kts 12°
2026-05-07 02:47 -23.86954 -49.57099 31166 ft 541 kts 12°
2026-05-07 02:48 -23.79657 -49.55065 31161 ft 541 kts 12°
2026-05-07 02:48 -23.72357 -49.53033 31155 ft 541 kts 12°
2026-05-07 02:49 -23.65050 -49.51013 31150 ft 542 kts 12°
2026-05-07 02:49 -23.57762 -49.48872 31146 ft 543 kts 14°
2026-05-07 02:50 -23.50525 -49.46509 31149 ft 543 kts 14°
2026-05-07 02:50 -23.43276 -49.44209 31151 ft 543 kts 13°
2026-05-07 02:51 -23.35928 -49.42335 31141 ft 542 kts 10°
2026-05-07 02:51 -23.29749 -49.40883 31141 ft 542 kts 10°
2026-05-07 02:52 -23.22374 -49.39115 31135 ft 543 kts 10°
2026-05-07 02:52 -23.15016 -49.37193 31142 ft 544 kts 12°
2026-05-07 02:53 -23.07689 -49.35105 31133 ft 545 kts 13°
2026-05-07 02:53 -23.00348 -49.33042 31133 ft 545 kts 12°
2026-05-07 02:54 -22.92996 -49.31011 31134 ft 545 kts 12°
2026-05-07 02:54 -22.85656 -49.28990 31137 ft 544 kts 12°
2026-05-07 02:55 -22.78322 -49.26981 31139 ft 544 kts 12°
2026-05-07 02:55 -22.70977 -49.24976 31130 ft 545 kts 12°
2026-05-07 02:56 -22.63630 -49.22966 31131 ft 545 kts 12°
2026-05-07 02:56 -22.56322 -49.20970 31128 ft 545 kts 13°
2026-05-07 02:57 -22.48990 -49.18876 31131 ft 545 kts 13°
2026-05-07 02:57 -22.41661 -49.16748 31132 ft 545 kts 13°
2026-05-07 02:58 -22.34307 -49.14742 31126 ft 545 kts 11°
2026-05-07 02:58 -22.26906 -49.12970 31130 ft 545 kts 11°
2026-05-07 02:59 -22.19504 -49.11181 31130 ft 545 kts 11°
2026-05-07 02:59 -22.12114 -49.09347 31131 ft 545 kts 11°
2026-05-07 03:00 -22.04721 -49.07525 31126 ft 545 kts 11°
2026-05-07 03:00 -21.97329 -49.05709 31126 ft 545 kts 11°
2026-05-07 03:01 -21.89933 -49.03894 31129 ft 545 kts 12°
2026-05-07 03:01 -21.82530 -49.02079 31128 ft 546 kts 12°
2026-05-07 03:02 -21.75125 -49.00261 31128 ft 546 kts 12°
2026-05-07 03:02 -21.67773 -48.98441 31128 ft 546 kts 12°
2026-05-07 03:03 -21.60320 -48.96900 31124 ft 545 kts
2026-05-07 03:03 -21.52807 -48.95781 31133 ft 545 kts
2026-05-07 03:04 -21.45284 -48.94658 31126 ft 546 kts
2026-05-07 03:04 -21.37770 -48.93465 31133 ft 546 kts
2026-05-07 03:05 -21.30254 -48.92257 31128 ft 546 kts
2026-05-07 03:05 -21.22740 -48.91061 31131 ft 546 kts
2026-05-07 03:06 -21.15225 -48.89862 31130 ft 546 kts
2026-05-07 03:06 -21.07714 -48.88657 31132 ft 546 kts
2026-05-07 03:07 -21.00202 -48.87453 31143 ft 546 kts
2026-05-07 03:07 -20.92687 -48.86252 31137 ft 546 kts
2026-05-07 03:08 -20.85168 -48.85053 31137 ft 546 kts
2026-05-07 03:08 -20.77650 -48.83851 31136 ft 546 kts
2026-05-07 03:09 -20.70134 -48.82648 31137 ft 546 kts
2026-05-07 03:09 -20.62653 -48.81577 31138 ft 546 kts
2026-05-07 03:10 -20.55091 -48.80872 31140 ft 546 kts
2026-05-07 03:10 -20.47524 -48.80157 31136 ft 546 kts
2026-05-07 03:11 -20.39955 -48.79371 31143 ft 547 kts
2026-05-07 03:11 -20.32387 -48.78569 31147 ft 546 kts
2026-05-07 03:12 -20.24821 -48.77777 31146 ft 547 kts
2026-05-07 03:12 -20.17242 -48.76988 31146 ft 547 kts
2026-05-07 03:13 -20.09671 -48.76202 31163 ft 547 kts
2026-05-07 03:13 -20.02098 -48.75410 31150 ft 547 kts
2026-05-07 03:14 -19.94516 -48.74621 31148 ft 548 kts
2026-05-07 03:15 -19.83147 -48.73442 31163 ft 547 kts
2026-05-07 03:15 -19.75572 -48.72654 31170 ft 547 kts
2026-05-07 03:16 -19.67999 -48.71869 31176 ft 547 kts
2026-05-07 03:16 -19.60429 -48.71085 31186 ft 546 kts
2026-05-07 03:17 -19.52861 -48.70303 31182 ft 546 kts
2026-05-07 03:17 -19.45291 -48.69521 31188 ft 547 kts
2026-05-07 03:18 -19.37723 -48.68738 31193 ft 547 kts
2026-05-07 03:18 -19.30154 -48.67957 31191 ft 546 kts
2026-05-07 03:19 -19.22588 -48.67176 31196 ft 546 kts
2026-05-07 03:19 -19.15068 -48.66408 31200 ft 547 kts
2026-05-07 03:20 -19.07490 -48.65708 31201 ft 547 kts
2026-05-07 03:20 -18.99913 -48.65039 31203 ft 546 kts
2026-05-07 03:21 -18.92337 -48.64358 31198 ft 546 kts
2026-05-07 03:21 -18.84711 -48.63664 31206 ft 546 kts
2026-05-07 03:22 -18.77191 -48.62979 31205 ft 546 kts
2026-05-07 03:22 -18.69612 -48.62291 31217 ft 547 kts
2026-05-07 03:23 -18.62025 -48.61599 31206 ft 548 kts
2026-05-07 03:23 -18.54430 -48.60896 31200 ft 548 kts
2026-05-07 03:24 -18.46842 -48.60194 31203 ft 547 kts
2026-05-07 03:24 -18.39252 -48.59496 31201 ft 548 kts
2026-05-07 03:25 -18.31665 -48.58798 31199 ft 548 kts
2026-05-07 03:25 -18.24073 -48.58112 31202 ft 548 kts
2026-05-07 03:26 -18.16478 -48.57436 31200 ft 548 kts
2026-05-07 03:26 -18.08880 -48.56760 31203 ft 548 kts
2026-05-07 03:27 -18.01277 -48.56080 31191 ft 548 kts
2026-05-07 03:27 -17.93678 -48.55403 31196 ft 548 kts
2026-05-07 03:28 -17.86082 -48.54724 31194 ft 548 kts
2026-05-07 03:28 -17.78531 -48.54053 31192 ft 548 kts
2026-05-07 03:29 -17.70938 -48.53376 31186 ft 547 kts
2026-05-07 03:29 -17.63299 -48.52724 31185 ft 548 kts
2026-05-07 03:30 -17.55748 -48.52093 31182 ft 548 kts
2026-05-07 03:30 -17.48146 -48.51451 31186 ft 548 kts
2026-05-07 03:31 -17.40543 -48.50811 31188 ft 548 kts
2026-05-07 03:31 -17.32938 -48.50169 31181 ft 548 kts
2026-05-07 03:32 -17.25340 -48.49530 31180 ft 548 kts
2026-05-07 03:32 -17.17737 -48.48891 31177 ft 548 kts
2026-05-07 03:33 -17.10140 -48.48252 31171 ft 548 kts
2026-05-07 03:33 -17.02539 -48.47614 31172 ft 548 kts
2026-05-07 03:34 -16.94939 -48.46975 31176 ft 547 kts
2026-05-07 03:34 -16.87346 -48.46335 31176 ft 548 kts
2026-05-07 03:35 -16.79756 -48.45702 31171 ft 547 kts
2026-05-07 03:35 -16.72171 -48.45067 31221 ft 545 kts
2026-05-07 03:36 -16.64709 -48.43970 31228 ft 545 kts 13°
2026-05-07 03:36 -16.57303 -48.42246 31222 ft 546 kts 13°
2026-05-07 03:37 -16.49866 -48.40527 31217 ft 547 kts 13°
2026-05-07 03:37 -16.42418 -48.38853 31212 ft 548 kts 12°
2026-05-07 03:38 -16.34952 -48.37196 31213 ft 549 kts 12°
2026-05-07 03:38 -16.27485 -48.35535 31215 ft 549 kts 12°
2026-05-07 03:39 -16.20021 -48.33875 31215 ft 549 kts 12°
2026-05-07 03:39 -16.12552 -48.32212 31216 ft 548 kts 12°
2026-05-07 03:40 -16.05096 -48.30554 31223 ft 548 kts 12°
2026-05-07 03:40 -15.97640 -48.28898 31221 ft 548 kts 12°
2026-05-07 03:41 -15.91397 -48.27513 31222 ft 548 kts 12°
2026-05-07 03:41 -15.83992 -48.25870 31213 ft 548 kts 12°
2026-05-07 03:42 -15.76527 -48.24216 31214 ft 548 kts 12°
2026-05-07 03:42 -15.69064 -48.22563 31213 ft 549 kts 12°
2026-05-07 03:43 -15.61600 -48.20910 31210 ft 548 kts 12°
2026-05-07 03:43 -15.54139 -48.19259 31209 ft 548 kts 12°
2026-05-07 03:44 -15.46739 -48.17423 31207 ft 546 kts 19°
2026-05-07 03:44 -15.39551 -48.14814 31461 ft 549 kts 21°
2026-05-07 03:44 -15.35966 -48.13482 31870 ft 545 kts 21°
2026-05-07 03:45 -15.32410 -48.12166 32327 ft 540 kts 20°
2026-05-07 03:45 -15.28882 -48.10869 32714 ft 537 kts 20°
2026-05-07 03:45 -15.25364 -48.09587 33065 ft 535 kts 20°
2026-05-07 03:45 -15.21845 -48.08312 33173 ft 537 kts 20°
2026-05-07 03:46 -15.18320 -48.07041 33205 ft 536 kts 19°
2026-05-07 03:46 -15.11285 -48.04509 33207 ft 534 kts 19°
2026-05-07 03:47 -15.04275 -48.01987 33214 ft 533 kts 19°
2026-05-07 03:47 -14.97286 -47.99470 33215 ft 532 kts 19°
2026-05-07 03:48 -14.90339 -47.96967 33204 ft 533 kts 19°
2026-05-07 03:48 -14.83336 -47.94448 33215 ft 534 kts 19°
2026-05-07 03:49 -14.76308 -47.91919 33212 ft 535 kts 19°
2026-05-07 03:49 -14.69264 -47.89389 33208 ft 537 kts 19°
2026-05-07 03:50 -14.62202 -47.86855 33196 ft 537 kts 19°
2026-05-07 03:50 -14.55137 -47.84322 33192 ft 537 kts 19°
2026-05-07 03:51 -14.48082 -47.81792 33197 ft 536 kts 19°
2026-05-07 03:51 -14.41033 -47.79266 33185 ft 535 kts 19°
2026-05-07 03:52 -14.34007 -47.76748 33186 ft 535 kts 19°
2026-05-07 03:52 -14.26974 -47.74235 33183 ft 535 kts 19°
2026-05-07 03:53 -14.19947 -47.71720 33190 ft 534 kts 19°
2026-05-07 03:53 -14.12925 -47.69209 33178 ft 534 kts 19°
2026-05-07 03:54 -14.05911 -47.66703 33164 ft 533 kts 19°
2026-05-07 03:54 -13.98898 -47.64204 33181 ft 533 kts 19°
2026-05-07 03:55 -13.91891 -47.61706 33179 ft 533 kts 19°
2026-05-07 03:55 -13.84889 -47.59208 33164 ft 532 kts 19°
2026-05-07 03:56 -13.77934 -47.56730 33171 ft 532 kts 19°
2026-05-07 03:56 -13.70925 -47.54237 33158 ft 534 kts 19°
2026-05-07 03:57 -13.63905 -47.51739 33149 ft 534 kts 19°
2026-05-07 03:57 -13.56891 -47.49246 33153 ft 534 kts 19°
2026-05-07 03:58 -13.49870 -47.46752 33147 ft 534 kts 19°
2026-05-07 03:58 -13.42845 -47.44255 33147 ft 534 kts 19°
2026-05-07 03:59 -13.35813 -47.41760 33137 ft 536 kts 19°
2026-05-07 03:59 -13.28766 -47.39260 33144 ft 536 kts 19°
2026-05-07 04:00 -13.21731 -47.36766 33134 ft 535 kts 19°
2026-05-07 04:00 -13.14695 -47.34277 33129 ft 535 kts 19°
2026-05-07 04:01 -13.07662 -47.31789 33114 ft 534 kts 19°
2026-05-07 04:01 -13.00641 -47.29304 33128 ft 534 kts 19°
2026-05-07 04:02 -12.93620 -47.26820 33121 ft 534 kts 19°
2026-05-07 04:02 -12.86596 -47.24337 33123 ft 534 kts 19°
2026-05-07 04:03 -12.79572 -47.21858 33112 ft 534 kts 19°
2026-05-07 04:03 -12.72550 -47.19379 33107 ft 534 kts 19°
2026-05-07 04:04 -12.65575 -47.16919 33110 ft 533 kts 19°
2026-05-07 04:04 -12.58559 -47.14447 33104 ft 534 kts 19°
2026-05-07 04:05 -12.51536 -47.11973 33097 ft 534 kts 19°
2026-05-07 04:05 -12.44517 -47.09500 33102 ft 534 kts 19°
2026-05-07 04:06 -12.37493 -47.07029 33090 ft 534 kts 19°
2026-05-07 04:06 -12.30469 -47.04559 33095 ft 534 kts 19°
2026-05-07 04:07 -12.23441 -47.02087 33092 ft 534 kts 19°
2026-05-07 04:07 -12.16415 -46.99618 33082 ft 534 kts 19°
2026-05-07 04:08 -12.09383 -46.97149 33081 ft 534 kts 19°
2026-05-07 04:08 -12.02361 -46.94685 33083 ft 533 kts 19°
2026-05-07 04:09 -11.95344 -46.92222 33083 ft 533 kts 18°
2026-05-07 04:09 -11.88307 -46.89831 33073 ft 533 kts 17°
2026-05-07 04:10 -11.81224 -46.87612 33074 ft 533 kts 16°
2026-05-07 04:10 -11.74138 -46.85413 33077 ft 532 kts 16°
2026-05-07 04:11 -11.67066 -46.83187 33063 ft 532 kts 16°
2026-05-07 04:11 -11.60044 -46.80963 33064 ft 532 kts 17°
2026-05-07 04:12 -11.52985 -46.78728 33069 ft 531 kts 16°
2026-05-07 04:12 -11.45925 -46.76495 33063 ft 531 kts 16°
2026-05-07 04:13 -11.38879 -46.74265 33062 ft 530 kts 16°
2026-05-07 04:13 -11.31841 -46.72040 33063 ft 530 kts 16°
2026-05-07 04:14 -11.24795 -46.69817 33057 ft 530 kts 16°
2026-05-07 04:14 -11.17755 -46.67595 33055 ft 530 kts 16°
2026-05-07 04:15 -11.10716 -46.65375 33055 ft 529 kts 16°
2026-05-07 04:15 -11.03684 -46.63154 33054 ft 529 kts 16°
2026-05-07 04:16 -10.96653 -46.60941 33058 ft 529 kts 16°
2026-05-07 04:16 -10.89625 -46.58731 33054 ft 528 kts 16°
2026-05-07 04:17 -10.82609 -46.56518 33054 ft 527 kts 16°
2026-05-07 04:17 -10.75600 -46.54314 33056 ft 527 kts 15°
2026-05-07 04:18 -10.68598 -46.52111 33058 ft 526 kts 15°
2026-05-07 04:18 -10.61608 -46.49911 33056 ft 526 kts 15°
2026-05-07 04:19 -10.54618 -46.47714 33056 ft 526 kts 15°
2026-05-07 04:19 -10.47632 -46.45525 33055 ft 525 kts 15°
2026-05-07 04:20 -10.40651 -46.43333 33048 ft 525 kts 15°
2026-05-07 04:20 -10.33676 -46.41143 33045 ft 524 kts 15°
2026-05-07 04:21 -10.23223 -46.37866 33036 ft 523 kts 15°
2026-05-07 04:21 -10.16310 -46.35702 33029 ft 523 kts 15°
2026-05-07 04:22 -10.09324 -46.33671 33025 ft 522 kts 13°
2026-05-07 04:22 -10.02315 -46.31709 33032 ft 522 kts 13°
2026-05-07 04:23 -9.95311 -46.29731 33035 ft 523 kts 13°
2026-05-07 04:23 -9.88305 -46.27734 33028 ft 523 kts 14°
2026-05-07 04:24 -9.81303 -46.25731 33027 ft 523 kts 14°
2026-05-07 04:24 -9.74304 -46.23732 33030 ft 523 kts 13°
2026-05-07 04:25 -9.67307 -46.21735 33027 ft 522 kts 13°
2026-05-07 04:25 -9.60313 -46.19739 33028 ft 522 kts 13°
2026-05-07 04:26 -9.53322 -46.17749 33019 ft 522 kts 14°
2026-05-07 04:26 -9.46336 -46.15758 33011 ft 522 kts 14°
2026-05-07 04:27 -9.39349 -46.13767 33010 ft 521 kts 14°
2026-05-07 04:27 -9.32370 -46.11781 33007 ft 521 kts 14°
2026-05-07 04:28 -9.25401 -46.09797 32999 ft 520 kts 14°
2026-05-07 04:28 -9.18434 -46.07815 32998 ft 519 kts 14°
2026-05-07 04:29 -9.11485 -46.05838 33001 ft 518 kts 14°
2026-05-07 04:29 -9.04550 -46.03854 33000 ft 518 kts 14°
2026-05-07 04:30 -8.97629 -46.01862 32999 ft 517 kts 14°
2026-05-07 04:30 -8.91886 -46.00209 33002 ft 516 kts 14°
2026-05-07 04:31 -8.83866 -45.97906 33001 ft 515 kts 14°
2026-05-07 04:31 -8.78098 -45.96252 33001 ft 514 kts 14°
2026-05-07 04:32 -8.71737 -45.94426 33003 ft 514 kts 14°
2026-05-07 04:32 -8.64855 -45.92456 33003 ft 514 kts 14°
2026-05-07 04:33 -8.58018 -45.90492 32999 ft 514 kts 14°
2026-05-07 04:33 -8.51095 -45.88507 32988 ft 514 kts 14°
2026-05-07 04:34 -8.44230 -45.86544 32978 ft 512 kts 14°
2026-05-07 04:34 -8.37422 -45.84593 32998 ft 512 kts 14°
2026-05-07 04:35 -8.30573 -45.82629 32983 ft 511 kts 14°
2026-05-07 04:35 -8.23732 -45.80670 32996 ft 511 kts 14°
2026-05-07 04:36 -8.16891 -45.78713 32996 ft 511 kts 14°
2026-05-07 04:36 -8.10049 -45.76774 32982 ft 511 kts 14°
2026-05-07 04:37 -8.03202 -45.74865 32996 ft 510 kts 14°
2026-05-07 04:37 -7.96354 -45.72962 32985 ft 510 kts 14°
2026-05-07 04:38 -7.89522 -45.71060 32996 ft 510 kts 14°
2026-05-07 04:38 -7.82682 -45.69156 32985 ft 510 kts 14°
2026-05-07 04:39 -7.75848 -45.67251 32983 ft 510 kts 14°
2026-05-07 04:39 -7.69005 -45.65341 32984 ft 511 kts 14°
2026-05-07 04:40 -7.62152 -45.63435 32982 ft 512 kts 14°
2026-05-07 04:40 -7.55293 -45.61524 32982 ft 512 kts 14°
2026-05-07 04:41 -7.48478 -45.59625 32980 ft 511 kts 14°
2026-05-07 04:41 -7.41616 -45.57713 32975 ft 512 kts 14°
2026-05-07 04:42 -7.34757 -45.55807 32980 ft 511 kts 14°
2026-05-07 04:42 -7.27910 -45.53903 32985 ft 510 kts 14°
2026-05-07 04:43 -7.21078 -45.52003 32983 ft 510 kts 14°
2026-05-07 04:43 -7.14233 -45.50101 32983 ft 510 kts 14°
2026-05-07 04:44 -7.07379 -45.48198 32983 ft 511 kts 14°
2026-05-07 04:44 -7.00517 -45.46295 32977 ft 512 kts 14°
2026-05-07 04:45 -6.93654 -45.44389 32977 ft 512 kts 14°
2026-05-07 04:45 -6.86792 -45.42484 32975 ft 512 kts 14°
2026-05-07 04:46 -6.79934 -45.40581 32971 ft 511 kts 14°
2026-05-07 04:46 -6.73076 -45.38677 32969 ft 511 kts 14°
2026-05-07 04:47 -6.66214 -45.36774 32972 ft 511 kts 14°
2026-05-07 04:47 -6.59349 -45.34871 32974 ft 512 kts 14°
2026-05-07 04:48 -6.52491 -45.32968 32971 ft 511 kts 14°
2026-05-07 04:48 -6.45636 -45.31068 32974 ft 511 kts 14°
2026-05-07 04:49 -6.38826 -45.29182 32972 ft 511 kts 14°
2026-05-07 04:49 -6.31967 -45.27282 32977 ft 511 kts 14°
2026-05-07 04:50 -6.25103 -45.25381 32982 ft 512 kts 14°
2026-05-07 04:50 -6.18234 -45.23476 32967 ft 512 kts 14°
2026-05-07 04:51 -6.11362 -45.21549 32973 ft 512 kts 14°
2026-05-07 04:51 -6.04498 -45.19618 32968 ft 512 kts 14°
2026-05-07 04:52 -5.97636 -45.17695 32974 ft 512 kts 14°
2026-05-07 04:52 -5.90776 -45.15773 32967 ft 512 kts 14°
2026-05-07 04:53 -5.83924 -45.13836 32961 ft 512 kts 14°
2026-05-07 04:53 -5.77072 -45.11892 32961 ft 512 kts 14°
2026-05-07 04:54 -5.70222 -45.09951 32961 ft 512 kts 14°
2026-05-07 04:54 -5.63369 -45.08013 32960 ft 512 kts 14°
2026-05-07 04:55 -5.56514 -45.06073 32964 ft 512 kts 14°
2026-05-07 04:55 -5.49665 -45.04135 32966 ft 512 kts 14°
2026-05-07 04:56 -5.42851 -45.02210 32965 ft 512 kts 14°
2026-05-07 04:56 -5.35995 -45.00272 32963 ft 512 kts 14°
2026-05-07 04:57 -5.29138 -44.98332 32961 ft 512 kts 14°
2026-05-07 04:57 -5.22280 -44.96393 32963 ft 512 kts 14°
2026-05-07 04:58 -5.15419 -44.94457 32963 ft 512 kts 14°
2026-05-07 04:58 -5.08563 -44.92521 32967 ft 512 kts 14°
2026-05-07 04:59 -5.01698 -44.90581 32964 ft 513 kts 14°
2026-05-07 04:59 -4.94827 -44.88639 32958 ft 513 kts 14°
2026-05-07 05:00 -4.87950 -44.86697 32952 ft 513 kts 14°
2026-05-07 05:00 -4.81076 -44.84758 32954 ft 513 kts 14°
2026-05-07 05:01 -4.74202 -44.82820 32954 ft 513 kts 15°
2026-05-07 05:01 -4.67344 -44.80883 32951 ft 513 kts 15°
2026-05-07 05:02 -4.60471 -44.78946 32944 ft 513 kts 15°
2026-05-07 05:02 -4.53608 -44.77009 32947 ft 513 kts 15°
2026-05-07 05:03 -4.46736 -44.75071 32943 ft 513 kts 15°
2026-05-07 05:03 -4.39866 -44.73136 32945 ft 513 kts 15°
2026-05-07 05:04 -4.32999 -44.71200 32943 ft 513 kts 15°
2026-05-07 05:04 -4.26122 -44.69292 32946 ft 513 kts 13°
2026-05-07 05:05 -4.19200 -44.67567 32945 ft 513 kts 13°
2026-05-07 05:05 -4.12307 -44.65876 32945 ft 514 kts 13°
2026-05-07 05:06 -4.05370 -44.64140 32942 ft 514 kts 13°
2026-05-07 05:06 -3.98430 -44.62393 32945 ft 514 kts 13°
2026-05-07 05:07 -3.91491 -44.60645 32947 ft 514 kts 13°
2026-05-07 05:07 -3.84589 -44.58785 32947 ft 514 kts 15°
2026-05-07 05:08 -3.77708 -44.56825 32946 ft 514 kts 15°
2026-05-07 05:08 -3.70822 -44.54886 32942 ft 514 kts 15°
2026-05-07 05:09 -3.63932 -44.52967 32944 ft 514 kts 15°
2026-05-07 05:09 -3.57041 -44.51059 32945 ft 514 kts 14°
2026-05-07 05:10 -3.50149 -44.49168 32942 ft 513 kts 14°
2026-05-07 05:10 -3.43257 -44.47276 32949 ft 513 kts 14°
2026-05-07 05:11 -3.36370 -44.45384 32942 ft 513 kts 14°
2026-05-07 05:11 -3.29486 -44.43494 32944 ft 513 kts 15°
2026-05-07 05:12 -3.22609 -44.41595 32945 ft 513 kts 15°
2026-05-07 05:12 -3.15736 -44.39693 32945 ft 512 kts 15°
2026-05-07 05:13 -3.08863 -44.37795 32946 ft 512 kts 15°
2026-05-07 05:13 -3.01993 -44.35896 32947 ft 512 kts 15°
2026-05-07 05:14 -2.95163 -44.34010 32924 ft 513 kts 15°
2026-05-07 05:14 -2.88286 -44.32114 32913 ft 513 kts 15°
2026-05-07 05:15 -2.81412 -44.30215 32916 ft 512 kts 15°
2026-05-07 05:15 -2.74539 -44.28317 32913 ft 512 kts 15°
2026-05-07 05:16 -2.67668 -44.26420 32917 ft 512 kts 15°
2026-05-07 05:16 -2.60820 -44.24472 32913 ft 512 kts 19°
2026-05-07 05:17 -2.54326 -44.21590 32912 ft 511 kts 29°
2026-05-07 05:17 -2.48148 -44.18064 32918 ft 511 kts 30°
2026-05-07 05:18 -2.41958 -44.14550 32913 ft 512 kts 29°
2026-05-07 05:18 -2.35748 -44.11064 32918 ft 512 kts 29°
2026-05-07 05:19 -2.29526 -44.07591 32914 ft 512 kts 29°
2026-05-07 05:19 -2.23307 -44.04122 32919 ft 512 kts 29°
2026-05-07 05:20 -2.17086 -44.00650 32917 ft 512 kts 29°
2026-05-07 05:20 -2.10865 -43.97176 32914 ft 511 kts 29°
2026-05-07 05:21 -2.01542 -43.91972 32914 ft 512 kts 29°
2026-05-07 05:22 -1.96374 -43.89087 32914 ft 512 kts 29°
2026-05-07 05:22 -1.89143 -43.85049 32917 ft 512 kts 29°
2026-05-07 05:23 -1.82922 -43.81577 32919 ft 512 kts 29°
2026-05-07 05:23 -1.77708 -43.78667 32917 ft 512 kts 29°
2026-05-07 05:24 -1.71487 -43.75196 32922 ft 512 kts 29°
2026-05-07 05:24 -1.65268 -43.71726 32912 ft 512 kts 29°
2026-05-07 05:25 -1.59052 -43.68256 32916 ft 511 kts 29°
2026-05-07 05:25 -1.52840 -43.64788 32920 ft 511 kts 29°
2026-05-07 05:26 -1.46630 -43.61323 32916 ft 511 kts 29°
2026-05-07 05:26 -1.40465 -43.57887 32919 ft 511 kts 29°
2026-05-07 05:27 -1.34260 -43.54426 32925 ft 510 kts 29°
2026-05-07 05:27 -1.28065 -43.50970 32926 ft 510 kts 29°
2026-05-07 05:28 -1.21873 -43.47516 32926 ft 509 kts 29°
2026-05-07 05:28 -1.15689 -43.44065 32924 ft 509 kts 29°
2026-05-07 05:29 -1.09512 -43.40621 32930 ft 508 kts 29°
2026-05-07 05:29 -1.03341 -43.37182 32926 ft 508 kts 29°
2026-05-07 05:30 -0.97170 -43.33742 32928 ft 508 kts 29°
2026-05-07 05:30 -0.91008 -43.30303 32927 ft 507 kts 29°
2026-05-07 05:31 -0.84843 -43.26864 32927 ft 507 kts 29°
2026-05-07 05:31 -0.78681 -43.23428 32925 ft 507 kts 29°
2026-05-07 05:32 -0.72514 -43.19989 32927 ft 508 kts 29°
2026-05-07 05:32 -0.66338 -43.16546 32926 ft 508 kts 29°
2026-05-07 05:33 -0.60205 -43.13128 32923 ft 508 kts 29°
2026-05-07 05:33 -0.54027 -43.09681 32926 ft 509 kts 29°
2026-05-07 05:34 -0.47844 -43.06237 32925 ft 509 kts 29°
2026-05-07 05:34 -0.41659 -43.02787 32925 ft 509 kts 29°
2026-05-07 05:35 -0.35474 -42.99339 32925 ft 509 kts 29°
2026-05-07 05:35 -0.29293 -42.95894 32925 ft 509 kts 29°
2026-05-07 05:36 -0.23114 -42.92448 32924 ft 508 kts 29°
2026-05-07 05:36 -0.16939 -42.89005 32924 ft 508 kts 29°
2026-05-07 05:37 -0.10771 -42.85566 32928 ft 508 kts 29°
2026-05-07 05:37 -0.04599 -42.82124 32928 ft 508 kts 29°
2026-05-07 05:38 0.01578 -42.78680 32926 ft 508 kts 29°
2026-05-07 05:38 0.07757 -42.75237 32930 ft 509 kts 29°
2026-05-07 05:39 0.13945 -42.71790 32928 ft 509 kts 29°
2026-05-07 05:39 0.20123 -42.68347 32935 ft 508 kts 29°
2026-05-07 05:40 0.26254 -42.64928 32937 ft 508 kts 29°
2026-05-07 05:40 0.32425 -42.61489 32937 ft 508 kts 29°
2026-05-07 05:41 0.38596 -42.58047 32933 ft 508 kts 29°
2026-05-07 05:41 0.44766 -42.54605 32939 ft 508 kts 29°
2026-05-07 05:42 0.50942 -42.51164 32936 ft 508 kts 29°
2026-05-07 05:42 0.57117 -42.47720 32936 ft 508 kts 29°
2026-05-07 05:43 0.63291 -42.44277 32937 ft 508 kts 29°
2026-05-07 05:43 0.69468 -42.40833 32934 ft 509 kts 29°
2026-05-07 05:44 0.75646 -42.37389 32936 ft 509 kts 29°
2026-05-07 05:44 0.81827 -42.33943 32935 ft 509 kts 29°
2026-05-07 05:45 0.88009 -42.30496 32935 ft 509 kts 29°
2026-05-07 05:45 0.94188 -42.27050 32938 ft 509 kts 29°
2026-05-07 05:46 1.00366 -42.23604 32932 ft 508 kts 29°
2026-05-07 05:46 1.06535 -42.20165 32935 ft 507 kts 29°
2026-05-07 05:47 1.12695 -42.16730 32934 ft 507 kts 29°
2026-05-07 05:47 1.18842 -42.13302 32935 ft 506 kts 29°
2026-05-07 05:48 1.24987 -42.09872 32936 ft 506 kts 30°
2026-05-07 05:48 1.31143 -42.06441 32936 ft 507 kts 30°
2026-05-07 05:49 1.37297 -42.03009 32938 ft 507 kts 30°
2026-05-07 05:49 1.43449 -41.99576 32933 ft 506 kts 30°
2026-05-07 05:50 1.49594 -41.96146 32935 ft 506 kts 30°
2026-05-07 05:50 1.55744 -41.92716 32939 ft 506 kts 29°
2026-05-07 05:51 1.61892 -41.89285 32934 ft 506 kts 30°
2026-05-07 05:51 1.68038 -41.85855 32936 ft 506 kts 30°
2026-05-07 05:52 1.74181 -41.82427 32936 ft 506 kts 30°
2026-05-07 05:52 1.80326 -41.78998 32936 ft 506 kts 30°
2026-05-07 05:53 1.86426 -41.75594 32935 ft 506 kts 30°
2026-05-07 05:53 1.92570 -41.72162 32939 ft 505 kts 30°
2026-05-07 05:54 1.98708 -41.68736 32947 ft 505 kts 30°
2026-05-07 05:54 2.04841 -41.65314 32943 ft 505 kts 30°
2026-05-07 05:55 2.10978 -41.61888 32946 ft 505 kts 30°
2026-05-07 05:55 2.17120 -41.58458 32946 ft 506 kts 30°
2026-05-07 05:56 2.23268 -41.55024 32956 ft 506 kts 30°
2026-05-07 05:56 2.29420 -41.51586 32962 ft 507 kts 30°
2026-05-07 05:57 2.35588 -41.48141 32957 ft 508 kts 29°
2026-05-07 05:57 2.41758 -41.44701 32956 ft 508 kts 30°
2026-05-07 05:58 2.47920 -41.41254 32953 ft 508 kts 29°
2026-05-07 05:58 2.54079 -41.37805 32942 ft 508 kts 29°
2026-05-07 05:59 2.60246 -41.34367 32955 ft 508 kts 29°
2026-05-07 05:59 2.66373 -41.30946 32954 ft 508 kts 29°
2026-05-07 06:00 2.72544 -41.27495 32954 ft 508 kts 30°
2026-05-07 06:00 2.78721 -41.24042 32955 ft 509 kts 30°
2026-05-07 06:01 2.84901 -41.20585 32956 ft 509 kts 30°
2026-05-07 06:01 2.91091 -41.17127 32953 ft 510 kts 30°
2026-05-07 06:02 2.97286 -41.13660 32951 ft 510 kts 30°
2026-05-07 06:02 3.03489 -41.10195 32955 ft 511 kts 30°
2026-05-07 06:03 3.09694 -41.06723 32954 ft 511 kts 30°
2026-05-07 06:03 3.15899 -41.03251 32954 ft 511 kts 30°
2026-05-07 06:04 3.22100 -40.99781 32953 ft 511 kts 30°
2026-05-07 06:04 3.28305 -40.96311 32954 ft 511 kts 30°
2026-05-07 06:05 3.34511 -40.92838 32955 ft 511 kts 30°
2026-05-07 06:05 3.40725 -40.89357 32953 ft 512 kts 30°
2026-05-07 06:06 3.46907 -40.85898 32953 ft 514 kts 30°
2026-05-07 06:06 3.53165 -40.82444 32937 ft 513 kts 29°
2026-05-07 06:07 3.59388 -40.78932 32947 ft 513 kts 30°
2026-05-07 06:07 3.65600 -40.75428 32955 ft 512 kts 30°
2026-05-07 06:08 3.71820 -40.71945 32953 ft 512 kts 30°
2026-05-07 06:08 3.78041 -40.68458 32954 ft 512 kts 30°
2026-05-07 06:09 3.84267 -40.64971 32955 ft 513 kts 30°
2026-05-07 06:09 3.90502 -40.61479 32954 ft 514 kts 30°
2026-05-07 06:10 3.96742 -40.57983 32948 ft 514 kts 30°
2026-05-07 06:10 4.02988 -40.54480 32943 ft 515 kts 30°
2026-05-07 06:11 4.09236 -40.50974 32943 ft 515 kts 30°
2026-05-07 06:11 4.15488 -40.47468 32944 ft 515 kts 30°
2026-05-07 06:12 4.21742 -40.43961 32944 ft 515 kts 30°
2026-05-07 06:12 4.27993 -40.40454 32944 ft 515 kts 30°
2026-05-07 06:13 4.33187 -40.37541 32945 ft 515 kts 30°
2026-05-07 06:13 4.39432 -40.34036 32942 ft 514 kts 30°
2026-05-07 06:14 4.45677 -40.30527 32936 ft 515 kts 30°
2026-05-07 06:14 4.51919 -40.27023 32941 ft 514 kts 30°
2026-05-07 06:15 4.58141 -40.23530 32932 ft 511 kts 30°
2026-05-07 06:15 4.64330 -40.20053 32929 ft 509 kts 30°
2026-05-07 06:16 4.70492 -40.16590 32934 ft 507 kts 30°
2026-05-07 06:16 4.76650 -40.13131 32934 ft 507 kts 29°
2026-05-07 06:17 4.82809 -40.09670 32938 ft 508 kts 29°
2026-05-07 06:17 4.88982 -40.06199 32936 ft 509 kts 30°
2026-05-07 06:18 4.95166 -40.02720 32936 ft 510 kts 29°
2026-05-07 06:18 5.01390 -39.99279 32941 ft 511 kts 27°
2026-05-07 06:19 5.07777 -39.96136 32950 ft 512 kts 25°
2026-05-07 06:19 5.14202 -39.93058 32943 ft 512 kts 25°
2026-05-07 06:20 5.20581 -39.89982 32945 ft 512 kts 26°
2026-05-07 06:20 5.26987 -39.86866 32941 ft 512 kts 26°
2026-05-07 06:21 5.33383 -39.83745 32945 ft 511 kts 26°
2026-05-07 06:21 5.39778 -39.80629 32947 ft 511 kts 26°
2026-05-07 06:22 5.46173 -39.77509 32945 ft 511 kts 26°
2026-05-07 06:22 5.55768 -39.72829 32945 ft 511 kts 26°
2026-05-07 06:23 5.62165 -39.69707 32941 ft 511 kts 25°
2026-05-07 06:23 5.68565 -39.66583 32947 ft 512 kts 25°
2026-05-07 06:24 5.74976 -39.63454 32942 ft 512 kts 25°
2026-05-07 06:24 5.81390 -39.60326 32946 ft 513 kts 25°
2026-05-07 06:25 5.87795 -39.57195 32943 ft 512 kts 25°
2026-05-07 06:25 5.94203 -39.54063 32946 ft 512 kts 25°
2026-05-07 06:26 6.00571 -39.50953 32945 ft 512 kts 25°
2026-05-07 06:26 6.06984 -39.47820 32944 ft 513 kts 25°
2026-05-07 06:27 6.13402 -39.44681 32939 ft 513 kts 25°
2026-05-07 06:27 6.19828 -39.41539 32934 ft 514 kts 25°
2026-05-07 06:28 6.26258 -39.38395 32935 ft 514 kts 25°
2026-05-07 06:28 6.32686 -39.35251 32934 ft 514 kts 25°
2026-05-07 06:29 6.39116 -39.32103 32935 ft 514 kts 25°
2026-05-07 06:29 6.45542 -39.28956 32937 ft 514 kts 25°
2026-05-07 06:30 6.51969 -39.25808 32934 ft 514 kts 25°
2026-05-07 06:30 6.58395 -39.22661 32935 ft 514 kts 25°
2026-05-07 06:31 6.64825 -39.19511 32934 ft 514 kts 25°
2026-05-07 06:31 6.71256 -39.16358 32935 ft 514 kts 25°
2026-05-07 06:32 6.77689 -39.13204 32943 ft 514 kts 25°
2026-05-07 06:32 6.84081 -39.10070 32946 ft 515 kts 25°
2026-05-07 06:33 6.90522 -39.06913 32940 ft 515 kts 25°
2026-05-07 06:33 6.96969 -39.03748 32947 ft 516 kts 25°
2026-05-07 06:34 7.03427 -39.00577 32946 ft 517 kts 25°
2026-05-07 06:34 7.09891 -38.97403 32946 ft 517 kts 25°
2026-05-07 06:35 7.16357 -38.94228 32945 ft 517 kts 25°
2026-05-07 06:35 7.22820 -38.91052 32944 ft 517 kts 25°
2026-05-07 06:36 7.29286 -38.87873 32946 ft 517 kts 25°
2026-05-07 06:36 7.35762 -38.84690 32944 ft 518 kts 25°
2026-05-07 06:37 7.42239 -38.81505 32946 ft 518 kts 25°
2026-05-07 06:37 7.48715 -38.78320 32943 ft 518 kts 25°
2026-05-07 06:38 7.55197 -38.75129 32944 ft 519 kts 25°
2026-05-07 06:38 7.61685 -38.71936 32945 ft 519 kts 25°
2026-05-07 06:39 7.68177 -38.68739 32945 ft 520 kts 25°
2026-05-07 06:39 7.74679 -38.65536 32947 ft 520 kts 25°
2026-05-07 06:40 7.81182 -38.62331 32944 ft 520 kts 25°
2026-05-07 06:40 7.87686 -38.59127 32945 ft 520 kts 25°
2026-05-07 06:41 7.94189 -38.55922 32945 ft 520 kts 25°
2026-05-07 06:41 8.00690 -38.52713 32944 ft 520 kts 25°
2026-05-07 06:42 8.07196 -38.49501 32941 ft 521 kts 24°
2026-05-07 06:42 8.13710 -38.46285 32948 ft 522 kts 24°
2026-05-07 06:43 8.20192 -38.43083 32944 ft 523 kts 24°
2026-05-07 06:43 8.26726 -38.39857 32945 ft 523 kts 24°
2026-05-07 06:44 8.33266 -38.36624 32944 ft 523 kts 24°
2026-05-07 06:44 8.39803 -38.33391 32945 ft 523 kts 24°
2026-05-07 06:45 8.46339 -38.30159 32945 ft 522 kts 24°
2026-05-07 06:45 8.52866 -38.26931 32944 ft 521 kts 24°
2026-05-07 06:46 8.59377 -38.23708 32942 ft 521 kts 24°
2026-05-07 06:46 8.65893 -38.20482 32946 ft 521 kts 24°
2026-05-07 06:47 8.72367 -38.17274 33016 ft 524 kts 24°
2026-05-07 06:47 8.75639 -38.15653 33280 ft 523 kts 24°
2026-05-07 06:47 8.78901 -38.14037 33600 ft 521 kts 24°
2026-05-07 06:48 8.82150 -38.12425 33918 ft 520 kts 24°
2026-05-07 06:48 8.85398 -38.10815 34219 ft 519 kts 24°
2026-05-07 06:48 8.88630 -38.09212 34508 ft 517 kts 24°
2026-05-07 06:48 8.91860 -38.07611 34776 ft 516 kts 24°
2026-05-07 06:49 8.95087 -38.06009 34889 ft 517 kts 24°
2026-05-07 06:49 8.98320 -38.04405 34928 ft 517 kts 24°
2026-05-07 06:49 9.04771 -38.01204 34933 ft 515 kts 23°
2026-05-07 06:50 9.11187 -37.98019 34946 ft 513 kts 23°
2026-05-07 06:50 9.17583 -37.94841 34944 ft 511 kts 23°
2026-05-07 06:51 9.23971 -37.91667 34953 ft 511 kts 23°
2026-05-07 06:51 9.30356 -37.88493 34956 ft 512 kts 23°
2026-05-07 06:52 9.36756 -37.85312 34957 ft 513 kts 23°
2026-05-07 06:52 9.43175 -37.82120 34958 ft 514 kts 23°
2026-05-07 06:53 9.49604 -37.78917 34953 ft 516 kts 23°
2026-05-07 06:53 9.56047 -37.75707 34956 ft 516 kts 23°
2026-05-07 06:54 9.62500 -37.72492 34951 ft 517 kts 23°
2026-05-07 06:54 9.68950 -37.69278 34950 ft 516 kts 22°
2026-05-07 06:55 9.75394 -37.66066 34952 ft 516 kts 22°
2026-05-07 06:55 9.81789 -37.62875 34954 ft 515 kts 22°
2026-05-07 06:56 9.88219 -37.59667 34955 ft 515 kts 22°
2026-05-07 06:56 9.94649 -37.56457 34954 ft 515 kts 22°
2026-05-07 06:57 10.01073 -37.53249 34955 ft 515 kts 22°
2026-05-07 06:57 10.07496 -37.50038 34955 ft 515 kts 22°
2026-05-07 06:58 10.13922 -37.46827 34952 ft 515 kts 22°
2026-05-07 06:58 10.20349 -37.43613 34954 ft 515 kts 22°
2026-05-07 06:59 10.26776 -37.40396 34956 ft 515 kts 22°
2026-05-07 06:59 10.33207 -37.37178 34957 ft 515 kts 22°
2026-05-07 07:00 10.39642 -37.33957 34954 ft 516 kts 22°
2026-05-07 07:00 10.46082 -37.30730 34952 ft 516 kts 22°
2026-05-07 07:01 10.52511 -37.27503 34954 ft 515 kts 22°
2026-05-07 07:01 10.58944 -37.24279 34952 ft 515 kts 22°
2026-05-07 07:02 10.65371 -37.21057 34953 ft 515 kts 22°
2026-05-07 07:02 10.71791 -37.17831 34955 ft 514 kts 22°
2026-05-07 07:03 10.78208 -37.14609 34956 ft 514 kts 22°
2026-05-07 07:03 10.84628 -37.11383 34956 ft 515 kts 22°
2026-05-07 07:04 10.91004 -37.08177 34950 ft 515 kts 22°
2026-05-07 07:04 10.97421 -37.04951 34955 ft 514 kts 22°
2026-05-07 07:05 11.03836 -37.01722 34953 ft 514 kts 22°
2026-05-07 07:05 11.10247 -36.98495 34955 ft 514 kts 22°
2026-05-07 07:06 11.15619 -36.95790 34952 ft 514 kts 22°
2026-05-07 07:06 11.22035 -36.92557 34955 ft 515 kts 21°
2026-05-07 07:07 11.28458 -36.89320 34959 ft 515 kts 22°
2026-05-07 07:07 11.34839 -36.86099 34952 ft 515 kts 21°
2026-05-07 07:08 11.41261 -36.82857 34954 ft 515 kts 21°
2026-05-07 07:08 11.47688 -36.79612 34954 ft 515 kts 21°
2026-05-07 07:09 11.54113 -36.76366 34951 ft 515 kts 21°
2026-05-07 07:09 11.60538 -36.73117 34953 ft 516 kts 21°
2026-05-07 07:10 11.66958 -36.69870 34951 ft 515 kts 21°
2026-05-07 07:10 11.73330 -36.66509 34950 ft 516 kts 23°
2026-05-07 07:11 11.79667 -36.63064 34956 ft 516 kts 23°
2026-05-07 07:11 11.85996 -36.59622 34956 ft 515 kts 23°
2026-05-07 07:12 11.92340 -36.56193 34955 ft 516 kts 22°
2026-05-07 07:12 11.98689 -36.52773 34955 ft 516 kts 22°
2026-05-07 07:13 12.05040 -36.49346 34958 ft 516 kts 22°
2026-05-07 07:13 12.11383 -36.45923 34954 ft 515 kts 22°
2026-05-07 07:14 12.17680 -36.42525 34961 ft 515 kts 22°
2026-05-07 07:14 12.24015 -36.39102 34961 ft 515 kts 22°
2026-05-07 07:15 12.30347 -36.35679 34964 ft 515 kts 22°
2026-05-07 07:15 12.36673 -36.32255 34973 ft 514 kts 22°
2026-05-07 07:16 12.42993 -36.28833 34971 ft 514 kts 22°
2026-05-07 07:16 12.49312 -36.25410 34973 ft 514 kts 22°
2026-05-07 07:17 12.55631 -36.21987 34973 ft 514 kts 23°
2026-05-07 07:17 12.61946 -36.18562 34972 ft 513 kts 23°
2026-05-07 07:18 12.68257 -36.15138 34973 ft 513 kts 23°
2026-05-07 07:18 12.74569 -36.11713 34972 ft 513 kts 23°
2026-05-07 07:19 12.80872 -36.08290 34975 ft 513 kts 23°
2026-05-07 07:19 12.87173 -36.04867 34969 ft 512 kts 23°
2026-05-07 07:20 12.93422 -36.01468 34975 ft 511 kts 23°
2026-05-07 07:20 12.99745 -35.98027 34971 ft 511 kts 23°
2026-05-07 07:21 13.05975 -35.94637 34973 ft 510 kts 23°
2026-05-07 07:21 13.12244 -35.91222 34972 ft 510 kts 23°
2026-05-07 07:22 13.18504 -35.87810 34972 ft 509 kts 23°
2026-05-07 07:22 13.24761 -35.84398 34972 ft 509 kts 23°
2026-05-07 07:23 13.31010 -35.80988 34974 ft 509 kts 23°
2026-05-07 07:23 13.37255 -35.77577 34972 ft 508 kts 23°
2026-05-07 07:24 13.43495 -35.74171 34972 ft 508 kts 23°
2026-05-07 07:24 13.49738 -35.70759 34973 ft 508 kts 23°
2026-05-07 07:25 13.59082 -35.65645 34970 ft 507 kts 23°
2026-05-07 07:26 13.65301 -35.62246 34974 ft 506 kts 23°
2026-05-07 07:26 13.71515 -35.58842 34971 ft 506 kts 23°
2026-05-07 07:27 13.77720 -35.55439 34972 ft 505 kts 23°
2026-05-07 07:27 13.83928 -35.52033 34972 ft 506 kts 23°
2026-05-07 07:28 13.90139 -35.48625 34973 ft 506 kts 23°
2026-05-07 07:28 13.96356 -35.45212 34971 ft 506 kts 23°
2026-05-07 07:29 14.02580 -35.41793 34976 ft 507 kts 24°
2026-05-07 07:29 14.08794 -35.38375 34974 ft 506 kts 24°
2026-05-07 07:30 14.14996 -35.34965 34969 ft 505 kts 24°
2026-05-07 07:30 14.21182 -35.31561 34972 ft 503 kts 24°
2026-05-07 07:31 14.27351 -35.28162 34970 ft 502 kts 24°
2026-05-07 07:31 14.33507 -35.24769 34971 ft 501 kts 24°
2026-05-07 07:32 14.39656 -35.21378 34983 ft 501 kts 24°
2026-05-07 07:32 14.45804 -35.17986 34976 ft 501 kts 24°
2026-05-07 07:33 14.51917 -35.14610 34973 ft 502 kts 24°
2026-05-07 07:33 14.58070 -35.11210 34973 ft 502 kts 24°
2026-05-07 07:34 14.64220 -35.07811 34972 ft 501 kts 24°
2026-05-07 07:34 14.70369 -35.04408 34973 ft 501 kts 24°
2026-05-07 07:35 14.76511 -35.01009 34972 ft 501 kts 24°
2026-05-07 07:35 14.82653 -34.97606 34972 ft 500 kts 24°
2026-05-07 07:36 14.88780 -34.94209 34972 ft 500 kts 24°
2026-05-07 07:36 14.94905 -34.90812 34971 ft 499 kts 24°
2026-05-07 07:37 15.01021 -34.87418 34973 ft 498 kts 24°
2026-05-07 07:37 15.07126 -34.84026 34973 ft 498 kts 24°
2026-05-07 07:38 15.13225 -34.80639 34972 ft 497 kts 25°
2026-05-07 07:38 15.19314 -34.77251 34973 ft 497 kts 24°
2026-05-07 07:39 15.25356 -34.73891 34975 ft 497 kts 25°
2026-05-07 07:39 15.31440 -34.70505 34984 ft 496 kts 25°
2026-05-07 07:40 15.37510 -34.67121 34981 ft 495 kts 25°
2026-05-07 07:40 15.43572 -34.63739 34982 ft 495 kts 25°
2026-05-07 07:41 15.49631 -34.60356 34982 ft 494 kts 25°
2026-05-07 07:41 15.55683 -34.56979 34982 ft 494 kts 25°
2026-05-07 07:42 15.61728 -34.53603 34979 ft 493 kts 25°
2026-05-07 07:42 15.67764 -34.50226 34983 ft 493 kts 25°
2026-05-07 07:43 15.73794 -34.46853 34982 ft 492 kts 25°
2026-05-07 07:43 15.79823 -34.43478 34981 ft 492 kts 25°
2026-05-07 07:44 15.85846 -34.40105 34984 ft 492 kts 25°
2026-05-07 07:44 15.91866 -34.36728 34984 ft 492 kts 25°
2026-05-07 07:45 15.97884 -34.33352 34982 ft 491 kts 25°
2026-05-07 07:45 16.03903 -34.29975 34984 ft 491 kts 25°
2026-05-07 07:46 16.09910 -34.26598 34980 ft 491 kts 25°
2026-05-07 07:46 16.15909 -34.23226 34981 ft 490 kts 25°
2026-05-07 07:47 16.21903 -34.19852 34983 ft 490 kts 25°
2026-05-07 07:47 16.27878 -34.16462 34981 ft 490 kts 27°
2026-05-07 07:48 16.33574 -34.12617 35000 ft 491 kts 31°
2026-05-07 07:48 16.39204 -34.08572 35002 ft 492 kts 32°
2026-05-07 07:49 16.44842 -34.04540 34984 ft 491 kts 31°
2026-05-07 07:49 16.50500 -34.00541 34985 ft 491 kts 31°
2026-05-07 07:50 16.56165 -33.96554 34986 ft 491 kts 31°
2026-05-07 07:50 16.61830 -33.92565 34999 ft 492 kts 31°
2026-05-07 07:51 16.67501 -33.88573 34992 ft 492 kts 31°
2026-05-07 07:51 16.73170 -33.84575 34987 ft 492 kts 31°
2026-05-07 07:52 16.78836 -33.80574 34987 ft 491 kts 31°
2026-05-07 07:52 16.84492 -33.76578 34984 ft 490 kts 31°
2026-05-07 07:53 16.90138 -33.72587 34984 ft 490 kts 31°
2026-05-07 07:53 16.95771 -33.68600 34984 ft 488 kts 31°
2026-05-07 07:54 17.01353 -33.64647 35000 ft 488 kts 31°
2026-05-07 07:54 17.06969 -33.60671 34987 ft 487 kts 31°
2026-05-07 07:55 17.12570 -33.56697 34984 ft 486 kts 31°
2026-05-07 07:55 17.18167 -33.52727 34986 ft 486 kts 31°
2026-05-07 07:56 17.23750 -33.48762 35000 ft 485 kts 31°
2026-05-07 07:56 17.29326 -33.44798 35002 ft 484 kts 31°
2026-05-07 07:57 17.33959 -33.41506 34985 ft 484 kts 32°
2026-05-07 07:57 17.39530 -33.37543 34994 ft 484 kts 32°
2026-05-07 07:58 17.45095 -33.33576 34989 ft 484 kts 32°
2026-05-07 07:58 17.50657 -33.29612 34984 ft 483 kts 32°
2026-05-07 07:59 17.56218 -33.25647 34994 ft 483 kts 32°
2026-05-07 07:59 17.61773 -33.21684 34999 ft 483 kts 32°
2026-05-07 08:00 17.67326 -33.17719 34999 ft 483 kts 32°
2026-05-07 08:00 17.72871 -33.13752 34987 ft 482 kts 32°
2026-05-07 08:01 17.78417 -33.09783 34983 ft 483 kts 32°
2026-05-07 08:01 17.83966 -33.05814 35003 ft 483 kts 32°
2026-05-07 08:02 17.89519 -33.01833 34994 ft 483 kts 32°
2026-05-07 08:02 17.95044 -32.97877 34985 ft 483 kts 32°
2026-05-07 08:03 18.00634 -32.93863 34982 ft 484 kts 32°
2026-05-07 08:03 18.06180 -32.89878 34986 ft 482 kts 32°
2026-05-07 08:04 18.11704 -32.85909 34983 ft 480 kts 32°
2026-05-07 08:04 18.17174 -32.81975 35001 ft 479 kts 32°
2026-05-07 08:05 18.22663 -32.78023 34986 ft 478 kts 32°
2026-05-07 08:05 18.28148 -32.74072 34986 ft 478 kts 32°
2026-05-07 08:06 18.33628 -32.70120 34984 ft 478 kts 32°
2026-05-07 08:06 18.39109 -32.66167 34987 ft 478 kts 32°
2026-05-07 08:07 18.44601 -32.62203 35004 ft 479 kts 32°
2026-05-07 08:07 18.50102 -32.58228 35004 ft 480 kts 32°
2026-05-07 08:08 18.55610 -32.54245 34986 ft 481 kts 32°
2026-05-07 08:08 18.61126 -32.50250 34987 ft 481 kts 32°
2026-05-07 08:09 18.66641 -32.46256 34985 ft 481 kts 32°
2026-05-07 08:09 18.72155 -32.42258 34994 ft 481 kts 32°
2026-05-07 08:10 18.77664 -32.38261 35000 ft 480 kts 32°
2026-05-07 08:10 18.83164 -32.34267 34982 ft 480 kts 32°
2026-05-07 08:11 18.88655 -32.30277 34985 ft 479 kts 33°
2026-05-07 08:11 18.94143 -32.26286 34983 ft 479 kts 33°
2026-05-07 08:12 18.99624 -32.22294 34984 ft 478 kts 33°
2026-05-07 08:12 19.05097 -32.18310 35002 ft 477 kts 33°
2026-05-07 08:13 19.10564 -32.14323 34986 ft 477 kts 33°
2026-05-07 08:13 19.15989 -32.10366 34983 ft 477 kts 33°
2026-05-07 08:14 19.21447 -32.06382 34993 ft 476 kts 33°
2026-05-07 08:14 19.26897 -32.02397 34990 ft 476 kts 33°
2026-05-07 08:15 19.32354 -31.98406 34986 ft 477 kts 33°
2026-05-07 08:15 19.37814 -31.94407 34993 ft 478 kts 33°
2026-05-07 08:16 19.43279 -31.90403 35003 ft 478 kts 33°
2026-05-07 08:16 19.48749 -31.86392 34985 ft 478 kts 33°
2026-05-07 08:17 19.54220 -31.82378 34985 ft 478 kts 33°
2026-05-07 08:17 19.59690 -31.78358 34986 ft 479 kts 33°
2026-05-07 08:18 19.65160 -31.74336 34996 ft 478 kts 33°
2026-05-07 08:18 19.70627 -31.70314 34985 ft 478 kts 33°
2026-05-07 08:19 19.76092 -31.66291 34983 ft 478 kts 33°
2026-05-07 08:19 19.81553 -31.62267 35002 ft 477 kts 33°
2026-05-07 08:20 19.87002 -31.58245 35008 ft 476 kts 33°
2026-05-07 08:20 19.92445 -31.54226 34998 ft 476 kts 33°
2026-05-07 08:21 19.97883 -31.50208 35006 ft 476 kts 33°
2026-05-07 08:21 20.03322 -31.46190 35000 ft 476 kts 33°
2026-05-07 08:22 20.08727 -31.42190 34986 ft 477 kts 33°
2026-05-07 08:22 20.14169 -31.38155 34999 ft 477 kts 33°
2026-05-07 08:23 20.19619 -31.34114 35000 ft 478 kts 33°
2026-05-07 08:23 20.25075 -31.30062 35002 ft 478 kts 33°
2026-05-07 08:24 20.30533 -31.26011 34984 ft 479 kts 33°
2026-05-07 08:24 20.35999 -31.21951 34985 ft 479 kts 33°
2026-05-07 08:25 20.41462 -31.17884 34985 ft 479 kts 33°
2026-05-07 08:25 20.46933 -31.13808 34983 ft 480 kts 33°
2026-05-07 08:26 20.55141 -31.07694 34986 ft 480 kts 33°
2026-05-07 08:26 20.60606 -31.03611 35007 ft 479 kts 33°
2026-05-07 08:27 20.66066 -30.99529 35001 ft 479 kts 33°
2026-05-07 08:27 20.71525 -30.95449 35003 ft 479 kts 33°
2026-05-07 08:28 20.76987 -30.91361 35001 ft 479 kts 32°
2026-05-07 08:28 20.82451 -30.87269 35004 ft 480 kts 32°
2026-05-07 08:29 20.87881 -30.83197 34992 ft 480 kts 32°
2026-05-07 08:29 20.93381 -30.79069 35003 ft 480 kts 32°
2026-05-07 08:30 20.98957 -30.75264 35001 ft 477 kts 26°
2026-05-07 08:30 21.04797 -30.71866 35002 ft 478 kts 26°
2026-05-07 08:31 21.10646 -30.68471 35005 ft 479 kts 26°
2026-05-07 08:31 21.16499 -30.65043 34995 ft 480 kts 26°
2026-05-07 08:32 21.22350 -30.61594 35003 ft 480 kts 26°
2026-05-07 08:32 21.28209 -30.58132 34988 ft 481 kts 26°
2026-05-07 08:33 21.34066 -30.54670 35001 ft 481 kts 26°
2026-05-07 08:33 21.39930 -30.51203 34992 ft 481 kts 26°
2026-05-07 08:34 21.45795 -30.47731 35000 ft 481 kts 26°
2026-05-07 08:34 21.51659 -30.44256 35010 ft 481 kts 26°
2026-05-07 08:35 21.57523 -30.40779 35013 ft 481 kts 26°
2026-05-07 08:35 21.63389 -30.37298 35011 ft 482 kts 26°
2026-05-07 08:36 21.69260 -30.33811 35006 ft 482 kts 26°
2026-05-07 08:36 21.75135 -30.30319 35007 ft 482 kts 26°
2026-05-07 08:37 21.80973 -30.26842 35012 ft 483 kts 26°
2026-05-07 08:37 21.86859 -30.23333 35014 ft 484 kts 26°
2026-05-07 08:38 21.92746 -30.19823 35014 ft 484 kts 25°
2026-05-07 08:38 21.98641 -30.16304 35003 ft 484 kts 25°
2026-05-07 08:39 22.04534 -30.12782 35006 ft 485 kts 26°
2026-05-07 08:39 22.10429 -30.09256 35014 ft 484 kts 26°
2026-05-07 08:40 22.16320 -30.05730 35015 ft 484 kts 26°
2026-05-07 08:40 22.22211 -30.02200 35014 ft 485 kts 26°
2026-05-07 08:41 22.28111 -29.98665 35007 ft 485 kts 26°
2026-05-07 08:41 22.34001 -29.95125 35009 ft 485 kts 25°
2026-05-07 08:42 22.39891 -29.91585 35012 ft 484 kts 25°
2026-05-07 08:42 22.45776 -29.88044 35008 ft 484 kts 25°
2026-05-07 08:43 22.51659 -29.84502 35006 ft 484 kts 25°
2026-05-07 08:43 22.57533 -29.80960 35003 ft 483 kts 25°
2026-05-07 08:44 22.63403 -29.77419 35010 ft 483 kts 25°
2026-05-07 08:44 22.69272 -29.73873 35006 ft 483 kts 25°
2026-05-07 08:45 22.75147 -29.70324 35014 ft 484 kts 25°
2026-05-07 08:45 22.81029 -29.66765 35011 ft 485 kts 25°
2026-05-07 08:46 22.86921 -29.63196 35013 ft 486 kts 25°
2026-05-07 08:46 22.92780 -29.59642 35010 ft 486 kts 25°
2026-05-07 08:47 22.98682 -29.56059 35017 ft 486 kts 25°
2026-05-07 08:47 23.04581 -29.52475 35015 ft 486 kts 25°
2026-05-07 08:48 23.10479 -29.48888 35014 ft 486 kts 25°
2026-05-07 08:48 23.15373 -29.45908 35019 ft 485 kts 25°
2026-05-07 08:49 23.21262 -29.42318 35017 ft 485 kts 25°
2026-05-07 08:49 23.27193 -29.38702 35013 ft 485 kts 25°
2026-05-07 08:50 23.33081 -29.35108 35020 ft 486 kts 25°
2026-05-07 08:50 23.38939 -29.31527 35017 ft 486 kts 25°
2026-05-07 08:51 23.44833 -29.27920 35017 ft 486 kts 25°
2026-05-07 08:51 23.50717 -29.24314 35021 ft 485 kts 25°
2026-05-07 08:52 23.56606 -29.20704 35018 ft 486 kts 25°
2026-05-07 08:52 23.62497 -29.17089 35017 ft 486 kts 25°
2026-05-07 08:53 23.68389 -29.13470 35019 ft 486 kts 25°
2026-05-07 08:53 23.74292 -29.09842 35013 ft 487 kts 25°
2026-05-07 08:54 23.80187 -29.06211 35021 ft 487 kts 25°
2026-05-07 08:54 23.86084 -29.02575 35016 ft 487 kts 25°
2026-05-07 08:55 23.91983 -28.98937 35019 ft 487 kts 25°
2026-05-07 08:55 23.97883 -28.95291 35020 ft 487 kts 25°
2026-05-07 08:56 24.03778 -28.91650 35016 ft 487 kts 25°
2026-05-07 08:56 24.09676 -28.87998 35021 ft 488 kts 25°
2026-05-07 08:57 24.15542 -28.84360 35021 ft 488 kts 25°
2026-05-07 08:57 24.21451 -28.80696 35019 ft 488 kts 25°
2026-05-07 08:58 24.27367 -28.77023 35013 ft 489 kts 25°
2026-05-07 08:58 24.33284 -28.73346 35019 ft 489 kts 25°
2026-05-07 08:59 24.39211 -28.69658 35018 ft 490 kts 25°
2026-05-07 08:59 24.45134 -28.65966 35008 ft 490 kts 25°
2026-05-07 09:00 24.51062 -28.62271 35003 ft 490 kts 25°
2026-05-07 09:00 24.56987 -28.58573 35010 ft 490 kts 25°
2026-05-07 09:01 24.62909 -28.54870 35012 ft 490 kts 25°
2026-05-07 09:01 24.68825 -28.51167 35003 ft 489 kts 25°
2026-05-07 09:02 24.74733 -28.47468 35005 ft 488 kts 25°
2026-05-07 09:02 24.80641 -28.43763 35010 ft 489 kts 25°
2026-05-07 09:03 24.86546 -28.40056 35008 ft 488 kts 25°
2026-05-07 09:03 24.92409 -28.36376 35011 ft 489 kts 25°
2026-05-07 09:04 24.98318 -28.32656 35009 ft 489 kts 25°
2026-05-07 09:04 25.04228 -28.28931 35004 ft 489 kts 25°
2026-05-07 09:05 25.10142 -28.25202 35013 ft 490 kts 25°
2026-05-07 09:05 25.16056 -28.21468 35009 ft 490 kts 25°
2026-05-07 09:06 25.21974 -28.17727 35012 ft 490 kts 25°
2026-05-07 09:06 25.27892 -28.13982 35012 ft 490 kts 25°
2026-05-07 09:07 25.33809 -28.10233 35015 ft 490 kts 25°
2026-05-07 09:07 25.39724 -28.06483 35012 ft 490 kts 25°
2026-05-07 09:08 25.45643 -28.02728 35008 ft 490 kts 25°
2026-05-07 09:08 25.51557 -27.98969 35011 ft 490 kts 25°
2026-05-07 09:09 25.57475 -27.95201 35013 ft 491 kts 26°
2026-05-07 09:09 25.63400 -27.91429 35015 ft 491 kts 26°
2026-05-07 09:10 25.69328 -27.87647 35006 ft 492 kts 26°
2026-05-07 09:10 25.75254 -27.83862 35009 ft 492 kts 26°
2026-05-07 09:11 25.81180 -27.80073 35004 ft 491 kts 26°
2026-05-07 09:11 25.87064 -27.76307 35002 ft 491 kts 26°
2026-05-07 09:12 25.92978 -27.72516 35004 ft 491 kts 26°
2026-05-07 09:12 25.98889 -27.68725 35019 ft 490 kts 26°
2026-05-07 09:13 26.04796 -27.64929 35016 ft 491 kts 26°
2026-05-07 09:13 26.10705 -27.61129 35020 ft 491 kts 26°
2026-05-07 09:14 26.16621 -27.57324 35018 ft 491 kts 25°
2026-05-07 09:14 26.22526 -27.53514 35017 ft 490 kts 25°
2026-05-07 09:15 26.28427 -27.49709 35014 ft 490 kts 25°
2026-05-07 09:15 26.34324 -27.45898 35014 ft 489 kts 25°
2026-05-07 09:16 26.40210 -27.42091 35020 ft 489 kts 25°
2026-05-07 09:16 26.46093 -27.38285 35018 ft 488 kts 25°
2026-05-07 09:17 26.51963 -27.34474 35018 ft 488 kts 25°
2026-05-07 09:17 26.57842 -27.30659 35023 ft 489 kts 25°
2026-05-07 09:18 26.63726 -27.26837 35016 ft 490 kts 25°
2026-05-07 09:18 26.69620 -27.22997 35017 ft 490 kts 25°
2026-05-07 09:19 26.75521 -27.19151 35014 ft 491 kts 25°
2026-05-07 09:19 26.81387 -27.15327 35018 ft 491 kts 25°
2026-05-07 09:20 26.87294 -27.11468 35015 ft 492 kts 25°
2026-05-07 09:20 26.93209 -27.07602 35020 ft 492 kts 25°
2026-05-07 09:21 26.99118 -27.03734 35022 ft 492 kts 25°
2026-05-07 09:21 27.05026 -26.99857 35020 ft 492 kts 25°
2026-05-07 09:22 27.10939 -26.95980 35016 ft 492 kts 25°
2026-05-07 09:22 27.16848 -26.92097 35018 ft 492 kts 25°
2026-05-07 09:23 27.22763 -26.88204 35016 ft 493 kts 25°
2026-05-07 09:23 27.28675 -26.84307 35016 ft 493 kts 25°
2026-05-07 09:24 27.34588 -26.80404 35016 ft 493 kts 25°
2026-05-07 09:24 27.40503 -26.76500 35013 ft 493 kts 25°
2026-05-07 09:25 27.46418 -26.72590 35021 ft 493 kts 25°
2026-05-07 09:25 27.52333 -26.68674 35018 ft 494 kts 25°
2026-05-07 09:26 27.58218 -26.64774 35013 ft 494 kts 25°
2026-05-07 09:26 27.64144 -26.60841 35015 ft 494 kts 25°
2026-05-07 09:27 27.70071 -26.56900 35013 ft 495 kts 25°
2026-05-07 09:28 27.78968 -26.50980 35020 ft 495 kts 25°
2026-05-07 09:28 27.84902 -26.47022 35021 ft 495 kts 25°
2026-05-07 09:29 27.90837 -26.43059 35017 ft 495 kts 25°
2026-05-07 09:29 27.96773 -26.39092 35017 ft 496 kts 25°
2026-05-07 09:30 28.02709 -26.35119 35019 ft 495 kts 25°
2026-05-07 09:30 28.08640 -26.31143 35014 ft 496 kts 25°
2026-05-07 09:31 28.14569 -26.27166 35027 ft 495 kts 25°
2026-05-07 09:31 28.20502 -26.23179 35039 ft 496 kts 25°
2026-05-07 09:32 28.26438 -26.19186 35038 ft 496 kts 25°
2026-05-07 09:32 28.32380 -26.15183 35031 ft 497 kts 25°
2026-05-07 09:33 28.38319 -26.11173 35026 ft 497 kts 25°
2026-05-07 09:33 28.44261 -26.07161 35028 ft 497 kts 25°
2026-05-07 09:34 28.50199 -26.03145 35027 ft 497 kts 25°
2026-05-07 09:34 28.56134 -25.99125 35027 ft 497 kts 25°
2026-05-07 09:35 28.62072 -25.95099 35026 ft 497 kts 24°
2026-05-07 09:35 28.68009 -25.91066 35027 ft 497 kts 24°
2026-05-07 09:36 28.73911 -25.87053 35027 ft 498 kts 24°
2026-05-07 09:36 28.79862 -25.83004 35029 ft 498 kts 24°
2026-05-07 09:37 28.85819 -25.78943 35027 ft 499 kts 24°
2026-05-07 09:37 28.91781 -25.74871 34986 ft 500 kts 24°
2026-05-07 09:38 28.97757 -25.70787 34984 ft 500 kts 24°
2026-05-07 09:38 29.03726 -25.66699 34981 ft 500 kts 24°
2026-05-07 09:39 29.09692 -25.62609 34971 ft 500 kts 24°
2026-05-07 09:39 29.15649 -25.58519 34972 ft 500 kts 24°
2026-05-07 09:40 29.20599 -25.55117 34976 ft 499 kts 24°
2026-05-07 09:40 29.26550 -25.51020 34970 ft 499 kts 24°
2026-05-07 09:41 29.32502 -25.46919 34974 ft 499 kts 24°
2026-05-07 09:41 29.38452 -25.42819 34973 ft 499 kts 24°
2026-05-07 09:42 29.44400 -25.38708 34973 ft 499 kts 24°
2026-05-07 09:42 29.50348 -25.34589 34974 ft 499 kts 24°
2026-05-07 09:43 29.56300 -25.30463 34972 ft 500 kts 23°
2026-05-07 09:43 29.62253 -25.26330 34973 ft 500 kts 24°
2026-05-07 09:44 29.68210 -25.22191 34973 ft 500 kts 23°
2026-05-07 09:44 29.74166 -25.18049 34978 ft 500 kts 24°
2026-05-07 09:45 29.80117 -25.13902 34998 ft 500 kts 23°
2026-05-07 09:45 29.86062 -25.09753 35011 ft 500 kts 23°
2026-05-07 09:46 29.91966 -25.05626 35014 ft 500 kts 23°
2026-05-07 09:46 29.97918 -25.01462 35010 ft 500 kts 24°
2026-05-07 09:47 30.03964 -24.97583 34999 ft 494 kts 18°
2026-05-07 09:47 30.10144 -24.94137 35011 ft 493 kts 16°
2026-05-07 09:48 30.16347 -24.90722 35009 ft 495 kts 17°
2026-05-07 09:48 30.22557 -24.87250 35012 ft 497 kts 17°
2026-05-07 09:49 30.28776 -24.83726 35005 ft 498 kts 17°
2026-05-07 09:49 30.35000 -24.80181 35011 ft 499 kts 17°
2026-05-07 09:50 30.41190 -24.76650 35008 ft 500 kts 17°
2026-05-07 09:50 30.47428 -24.73094 35010 ft 500 kts 17°
2026-05-07 09:51 30.53668 -24.69532 35010 ft 499 kts 17°
2026-05-07 09:51 30.59895 -24.65973 35003 ft 499 kts 17°
2026-05-07 09:52 30.66120 -24.62406 35001 ft 499 kts 17°
2026-05-07 09:52 30.72343 -24.58840 35005 ft 499 kts 17°
2026-05-07 09:53 30.78570 -24.55266 35013 ft 499 kts 17°
2026-05-07 09:53 30.84796 -24.51685 35006 ft 500 kts 17°
2026-05-07 09:54 30.91038 -24.48091 35007 ft 500 kts 17°
2026-05-07 09:54 30.97278 -24.44492 35012 ft 501 kts 17°
2026-05-07 09:55 31.03535 -24.40879 35010 ft 502 kts 17°
2026-05-07 09:55 31.09801 -24.37254 35013 ft 503 kts 17°
2026-05-07 09:56 31.16086 -24.33611 35007 ft 505 kts 16°
2026-05-07 09:56 31.22386 -24.29959 35010 ft 506 kts 16°
2026-05-07 09:57 31.28695 -24.26295 35008 ft 507 kts 16°
2026-05-07 09:57 31.34978 -24.22639 35011 ft 509 kts 16°
2026-05-07 09:58 31.41319 -24.18941 34999 ft 510 kts 16°
2026-05-07 09:58 31.47683 -24.15230 34994 ft 512 kts 16°
2026-05-07 09:59 31.54070 -24.11496 34997 ft 514 kts 16°
2026-05-07 09:59 31.60473 -24.07747 35007 ft 515 kts 16°
2026-05-07 10:00 31.66892 -24.03983 34997 ft 517 kts 16°
2026-05-07 10:00 31.73324 -24.00203 34999 ft 517 kts 16°
2026-05-07 10:01 31.79766 -23.96416 35008 ft 518 kts 16°
2026-05-07 10:01 31.86219 -23.92615 35000 ft 519 kts 16°
2026-05-07 10:02 31.92677 -23.88805 34999 ft 519 kts 16°
2026-05-07 10:02 31.99127 -23.84989 34992 ft 518 kts 16°
2026-05-07 10:03 32.05569 -23.81175 35001 ft 518 kts 16°
2026-05-07 10:03 32.12001 -23.77362 34998 ft 517 kts 16°
2026-05-07 10:04 32.18427 -23.73547 35000 ft 517 kts 16°
2026-05-07 10:04 32.24851 -23.69727 34997 ft 517 kts 16°
2026-05-07 10:05 32.31270 -23.65904 35000 ft 517 kts 16°
2026-05-07 10:05 32.37671 -23.62084 35002 ft 515 kts 17°
2026-05-07 10:06 32.44075 -23.58260 34988 ft 516 kts 17°
2026-05-07 10:06 32.50483 -23.54424 34990 ft 516 kts 17°
2026-05-07 10:07 32.56856 -23.50601 34987 ft 517 kts 17°
2026-05-07 10:07 32.63272 -23.46748 34996 ft 517 kts 17°
2026-05-07 10:08 32.69690 -23.42890 35002 ft 517 kts 17°
2026-05-07 10:08 32.76106 -23.39024 34998 ft 517 kts 17°
2026-05-07 10:09 32.82525 -23.35152 34982 ft 517 kts 18°
2026-05-07 10:09 32.88944 -23.31272 34992 ft 517 kts 18°
2026-05-07 10:10 32.95358 -23.27388 34985 ft 518 kts 18°
2026-05-07 10:10 33.01775 -23.23497 34982 ft 517 kts 18°
2026-05-07 10:11 33.08184 -23.19605 34982 ft 517 kts 18°
2026-05-07 10:11 33.14591 -23.15707 34981 ft 516 kts 18°
2026-05-07 10:12 33.20988 -23.11809 34979 ft 516 kts 18°
2026-05-07 10:12 33.27381 -23.07906 34982 ft 516 kts 18°
2026-05-07 10:13 33.33785 -23.03992 34969 ft 517 kts 19°
2026-05-07 10:13 33.40201 -23.00062 34964 ft 518 kts 19°
2026-05-07 10:14 33.46619 -22.96125 34964 ft 518 kts 19°
2026-05-07 10:14 33.53037 -22.92182 34964 ft 519 kts 19°
2026-05-07 10:15 33.59463 -22.88226 34964 ft 519 kts 19°
2026-05-07 10:15 33.65890 -22.84265 34965 ft 519 kts 19°
2026-05-07 10:16 33.72324 -22.80292 34962 ft 521 kts 19°
2026-05-07 10:16 33.78734 -22.76329 34963 ft 522 kts 19°
2026-05-07 10:17 33.85196 -22.72320 34963 ft 523 kts 19°
2026-05-07 10:17 33.91670 -22.68304 34963 ft 524 kts 20°
2026-05-07 10:18 33.98154 -22.64273 34960 ft 524 kts 20°
2026-05-07 10:18 34.04635 -22.60235 34964 ft 525 kts 20°
2026-05-07 10:19 34.11122 -22.56186 34963 ft 525 kts 20°
2026-05-07 10:19 34.17614 -22.52129 34957 ft 526 kts 20°
2026-05-07 10:20 34.24107 -22.48063 34957 ft 526 kts 21°
2026-05-07 10:20 34.30599 -22.43986 34954 ft 525 kts 21°
2026-05-07 10:21 34.37081 -22.39915 34959 ft 525 kts 21°
2026-05-07 10:21 34.43565 -22.35835 34956 ft 525 kts 21°
2026-05-07 10:22 34.50041 -22.31748 34953 ft 525 kts 21°
2026-05-07 10:22 34.56517 -22.27656 34956 ft 526 kts 21°
2026-05-07 10:23 34.62962 -22.23580 34955 ft 525 kts 21°
2026-05-07 10:23 34.69436 -22.19480 34952 ft 524 kts 21°
2026-05-07 10:24 34.75899 -22.15374 34954 ft 524 kts 21°
2026-05-07 10:24 34.82352 -22.11267 34956 ft 523 kts 21°
2026-05-07 10:25 34.88796 -22.07163 34949 ft 523 kts 21°
2026-05-07 10:25 34.95230 -22.03053 34953 ft 522 kts 22°
2026-05-07 10:26 35.01684 -21.98997 34953 ft 520 kts 20°
2026-05-07 10:26 35.08243 -21.95295 34941 ft 520 kts 19°
2026-05-07 10:27 35.14864 -21.91660 34960 ft 523 kts 19°
2026-05-07 10:27 35.21513 -21.87974 34960 ft 526 kts 19°
2026-05-07 10:28 35.28182 -21.84240 34964 ft 528 kts 20°
2026-05-07 10:28 35.34855 -21.80483 34955 ft 528 kts 20°
2026-05-07 10:29 35.41522 -21.76719 34952 ft 527 kts 20°
2026-05-07 10:29 35.48177 -21.72958 35007 ft 528 kts 20°
2026-05-07 10:30 35.54830 -21.69192 35722 ft 523 kts 20°
2026-05-07 10:30 35.58125 -21.67327 36125 ft 520 kts 20°
2026-05-07 10:30 35.61406 -21.65468 36445 ft 519 kts 20°
2026-05-07 10:30 35.64685 -21.63610 36709 ft 519 kts 20°
2026-05-07 10:31 35.67958 -21.61751 36892 ft 519 kts 20°
2026-05-07 10:31 35.71236 -21.59888 36935 ft 518 kts 20°
2026-05-07 10:31 35.76632 -21.56813 36941 ft 509 kts 20°
2026-05-07 10:32 35.83023 -21.53170 36952 ft 505 kts 20°
2026-05-07 10:32 35.89406 -21.49527 36957 ft 506 kts 20°
2026-05-07 10:33 35.95798 -21.45874 36956 ft 507 kts 20°
2026-05-07 10:33 36.02211 -21.42200 36956 ft 508 kts 20°
2026-05-07 10:34 36.08631 -21.38515 36956 ft 510 kts 20°
2026-05-07 10:34 36.15068 -21.34812 36955 ft 510 kts 21°
2026-05-07 10:35 36.21508 -21.31099 36952 ft 511 kts 21°
2026-05-07 10:35 36.27911 -21.27402 36956 ft 511 kts 21°
2026-05-07 10:36 36.34361 -21.23669 36956 ft 512 kts 21°
2026-05-07 10:36 36.40827 -21.19924 36956 ft 513 kts 21°
2026-05-07 10:37 36.47294 -21.16172 36951 ft 513 kts 21°
2026-05-07 10:37 36.53756 -21.12412 36955 ft 513 kts 21°
2026-05-07 10:38 36.60218 -21.08647 36952 ft 512 kts 21°
2026-05-07 10:38 36.66667 -21.04883 36954 ft 512 kts 21°
2026-05-07 10:39 36.73121 -21.01110 36953 ft 512 kts 21°
2026-05-07 10:39 36.79572 -20.97330 36955 ft 512 kts 21°
2026-05-07 10:40 36.86024 -20.93541 36953 ft 512 kts 21°
2026-05-07 10:40 36.92477 -20.89747 36954 ft 513 kts 22°
2026-05-07 10:41 36.98938 -20.85941 36955 ft 514 kts 22°
2026-05-07 10:41 37.05403 -20.82125 36954 ft 514 kts 22°
2026-05-07 10:42 37.11877 -20.78293 36947 ft 515 kts 22°
2026-05-07 10:42 37.18356 -20.74457 36944 ft 515 kts 22°
2026-05-07 10:43 37.24836 -20.70612 36946 ft 516 kts 22°
2026-05-07 10:43 37.31319 -20.66754 36942 ft 516 kts 22°
2026-05-07 10:44 37.37804 -20.62888 36948 ft 516 kts 22°
2026-05-07 10:44 37.44293 -20.59016 36956 ft 516 kts 22°
2026-05-07 10:45 37.50792 -20.55130 36953 ft 517 kts 23°
2026-05-07 10:45 37.57286 -20.51232 36953 ft 517 kts 23°
2026-05-07 10:46 37.63788 -20.47325 36955 ft 518 kts 23°
2026-05-07 10:46 37.70245 -20.43443 36952 ft 518 kts 23°
2026-05-07 10:47 37.76748 -20.39522 36953 ft 518 kts 23°
2026-05-07 10:47 37.83256 -20.35591 36954 ft 518 kts 23°